KC6NLX-13 Weather Reports


time (UTC)temp
C
wind
direction
speed
KPH
gust
KPH
rain 1hr
cm
rain 24hr
cm
rain mn
cm
humidity
%
barometer
mb
20260507002906 11 332 3.2 6.4 0.00 1.75 0.15 56 1013.6
20260507002806 11 322 0.0 6.4 0.00 1.75 0.15 56 1013.6
20260507002706 11 333 0.0 6.4 0.00 1.75 0.15 56 1013.6
20260507002606 11 336 3.2 6.4 0.00 1.75 0.15 56 1013.6
20260507002506 12 307 3.2 8.0 0.00 1.75 0.15 55 1013.6
20260507002406 12 312 1.6 8.0 0.00 1.75 0.15 55 1013.6
20260507002306 12 305 1.6 8.0 0.00 1.75 0.15 55 1013.6
20260507002206 12 325 0.0 8.0 0.00 1.75 0.15 55 1013.6
20260507002106 12 285 0.0 8.0 0.00 1.75 0.15 55 1013.6
20260507002006 12 285 1.6 8.0 0.00 1.75 0.15 55 1013.6
20260507001906 12 294 4.8 8.0 0.00 1.75 0.15 55 1013.6
20260507001806 12 315 4.8 8.0 0.00 1.75 0.15 55 1013.6
20260507001706 12 309 3.2 8.0 0.00 1.75 0.15 54 1013.6
20260507001606 12 336 3.2 8.0 0.00 1.75 0.15 54 1013.6
20260507001506 12 333 3.2 8.0 0.00 1.75 0.15 54 1013.6
20260507001406 12 294 4.8 9.7 0.00 1.75 0.15 54 1013.6
20260507001306 12 326 6.4 9.7 0.00 1.75 0.15 54 1013.6
20260507001206 12 305 4.8 9.7 0.00 1.75 0.15 54 1013.6
20260507001106 12 267 3.2 11.3 0.00 1.75 0.15 54 1013.6
20260507001006 12 297 3.2 11.3 0.00 1.75 0.15 54 1013.6
20260507000907 12 307 3.2 11.3 0.00 1.75 0.15 54 1013.6
20260507000806 12 328 3.2 11.3 0.00 1.75 0.15 54 1013.6
20260507000706 12 295 4.8 11.3 0.00 1.75 0.15 54 1013.6
20260507000606 12 311 6.4 11.3 0.00 1.75 0.15 54 1013.6
20260507000506 12 309 8.0 11.3 0.00 1.75 0.15 53 1013.6
20260507000406 12 318 3.2 11.3 0.00 1.75 0.15 54 1013.6
20260507000306 12 312 6.4 11.3 0.00 1.75 0.15 53 1013.6
20260507000206 12 343 4.8 11.3 0.00 1.75 0.15 53 1013.6
20260507000106 12 308 1.6 12.9 0.00 1.75 0.15 54 1013.6
20260507000006 12 333 0.0 12.9 0.00 1.75 0.15 54 1013.6
20260506235906 12 262 0.0 12.9 0.00 1.75 0.15 54 1013.6
20260506235806 12 307 0.0 12.9 0.00 1.75 0.15 54 1013.6
20260506235706 12 298 3.2 12.9 0.00 1.75 0.15 54 1013.6
20260506235606 12 270 1.6 12.9 0.00 1.75 0.15 53 1013.6
20260506235506 12 300 3.2 12.9 0.00 1.75 0.15 52 1013.6
20260506235406 12 283 3.2 12.9 0.00 1.75 0.15 53 1013.6
20260506235307 12 280 3.2 12.9 0.00 1.75 0.15 52 1013.6
20260506235206 12 332 6.4 12.9 0.00 1.75 0.15 52 1013.6
20260506235106 12 274 6.4 11.3 0.00 1.75 0.15 51 1013.6
20260506235006 12 339 6.4 11.3 0.00 1.75 0.15 51 1013.6
20260506234906 12 283 8.0 11.3 0.00 1.75 0.15 51 1013.6
20260506234806 12 304 3.2 9.7 0.00 1.75 0.15 52 1013.6
20260506234706 12 301 4.8 9.7 0.00 1.75 0.15 52 1013.6
20260506234606 12 280 3.2 9.7 0.00 1.75 0.15 53 1013.6
20260506234506 12 253 3.2 9.7 0.00 1.75 0.15 53 1013.6
20260506234406 12 290 6.4 9.7 0.00 1.75 0.15 52 1013.6
20260506234306 12 325 4.8 8.0 0.00 1.75 0.15 53 1013.6
20260506234206 12 330 1.6 8.0 0.00 1.75 0.15 54 1013.6
20260506234106 12 323 3.2 8.0 0.00 1.75 0.15 53 1013.6
20260506234006 12 293 4.8 9.7 0.00 1.75 0.15 53 1013.6
20260506233906 12 332 4.8 9.7 0.00 1.75 0.15 54 1013.6
20260506233806 12 328 4.8 11.3 0.00 1.75 0.15 53 1013.6
20260506233706 12 339 3.2 11.3 0.00 1.75 0.15 54 1013.6
20260506233606 12 314 1.6 11.3 0.00 1.75 0.15 53 1013.6
20260506233506 12 316 1.6 11.3 0.00 1.75 0.15 53 1013.6
20260506233406 12 322 6.4 11.3 0.00 1.75 0.15 53 1013.6
20260506233306 12 336 6.4 11.3 0.00 1.75 0.15 53 1013.6
20260506233206 12 326 6.4 11.3 0.00 1.75 0.15 53 1013.6
20260506233106 12 345 6.4 11.3 0.00 1.75 0.15 53 1013.6
20260506233006 12 290 3.2 11.3 0.00 1.75 0.15 53 1013.6
20260506232906 12 328 8.0 11.3 0.00 1.75 0.15 52 1013.6
20260506232806 12 4 9.7 11.3 0.00 1.75 0.15 53 1013.6
20260506232707 12 309 3.2 11.3 0.00 1.75 0.15 53 1013.6
20260506232606 12 271 6.4 11.3 0.00 1.75 0.15 53 1013.6
20260506232506 12 281 6.4 11.3 0.00 1.75 0.15 53 1013.6
20260506232407 12 340 6.4 11.3 0.00 1.75 0.15 53 1013.6
20260506232307 12 308 6.4 11.3 0.00 1.75 0.15 53 1013.6
20260506232206 12 273 6.4 11.3 0.00 1.75 0.15 53 1013.6
20260506232106 12 294 3.2 11.3 0.00 1.75 0.15 54 1013.6
20260506232006 12 350 4.8 11.3 0.00 1.75 0.15 54 1013.6
20260506231907 12 328 4.8 11.3 0.00 1.75 0.15 54 1013.6
20260506231806 12 322 1.6 11.3 0.00 1.75 0.15 54 1013.6
20260506231706 12 309 0.0 11.3 0.00 1.75 0.15 54 1013.6
20260506231607 12 309 1.6 11.3 0.00 1.75 0.15 53 1013.6
20260506231506 12 283 1.6 11.3 0.00 1.75 0.15 53 1013.6
20260506231407 12 276 4.8 11.3 0.00 1.75 0.15 53 1013.6
20260506231306 12 305 6.4 11.3 0.00 1.75 0.15 53 1013.6
20260506231206 12 300 6.4 8.0 0.00 1.75 0.15 53 1013.6
20260506231106 12 263 0.0 8.0 0.00 1.75 0.15 53 1013.6
20260506231006 12 291 3.2 8.0 0.00 1.75 0.15 53 1013.6
20260506230907 12 305 1.6 9.7 0.00 1.75 0.15 53 1013.6
20260506230806 12 302 1.6 9.7 0.00 1.75 0.15 54 1013.6
20260506230706 12 304 1.6 9.7 0.00 1.75 0.15 53 1013.6
20260506230606 12 297 3.2 9.7 0.00 1.75 0.15 53 1013.6
20260506230507 12 328 0.0 9.7 0.00 1.75 0.15 53 1013.6
20260506230406 12 312 1.6 11.3 0.00 1.75 0.15 53 1013.6
20260506230307 12 307 1.6 11.3 0.00 1.75 0.15 53 1013.6
20260506230206 12 308 3.2 11.3 0.00 1.75 0.15 52 1013.6
20260506230106 12 297 4.8 11.3 0.00 1.75 0.15 51 1013.6
20260506230006 12 298 6.4 11.3 0.00 1.75 0.15 52 1013.6
20260506225906 12 322 4.8 12.9 0.00 1.75 0.15 52 1013.6
20260506225806 12 302 3.2 12.9 0.00 1.75 0.15 53 1013.6
20260506225707 12 314 1.6 12.9 0.00 1.75 0.15 52 1013.9
20260506225607 12 319 6.4 12.9 0.00 1.75 0.15 52 1013.6
20260506225506 12 338 8.0 12.9 0.00 1.75 0.15 52 1013.6
20260506225406 12 319 3.2 12.9 0.00 1.75 0.15 53 1013.6
20260506225306 12 316 6.4 12.9 0.00 1.75 0.15 52 1013.6
20260506225206 12 339 3.2 12.9 0.00 1.75 0.15 52 1013.9
20260506225107 12 332 6.4 12.9 0.00 1.75 0.15 51 1013.9
20260506225007 12 316 8.0 12.9 0.00 1.75 0.15 51 1013.9
20260506224906 12 311 3.2 12.9 0.00 1.75 0.15 52 1013.9
20260506224806 12 287 3.2 12.9 0.00 1.75 0.15 51 1013.9
20260506224707 12 297 4.8 12.9 0.00 1.75 0.15 51 1013.9
20260506224607 12 297 8.0 12.9 0.00 1.75 0.15 51 1013.9
20260506224506 12 316 4.8 12.9 0.00 1.75 0.15 51 1013.9
20260506224406 12 297 8.0 12.9 0.00 1.75 0.15 51 1013.9
20260506224306 12 335 8.0 12.9 0.00 1.75 0.15 51 1013.9
20260506224206 12 295 6.4 12.9 0.00 1.75 0.15 51 1013.9
20260506224107 12 345 6.4 14.5 0.00 1.75 0.15 50 1013.9
20260506224006 12 312 8.0 14.5 0.00 1.75 0.15 51 1013.9
20260506223906 12 335 8.0 14.5 0.00 1.75 0.15 51 1013.9
20260506223807 12 276 6.4 14.5 0.00 1.75 0.15 51 1014.3
20260506223707 12 293 3.2 14.5 0.00 1.75 0.15 50 1014.3
20260506223607 12 264 6.4 14.5 0.00 1.75 0.15 50 1014.3
20260506223506 12 266 6.4 14.5 0.00 1.75 0.15 50 1014.3
20260506223406 12 269 6.4 14.5 0.00 1.75 0.15 50 1014.3
20260506223306 12 311 4.8 14.5 0.00 1.75 0.15 50 1014.3
20260506223207 12 288 8.0 14.5 0.00 1.75 0.15 50 1014.3
20260506223107 12 328 8.0 12.9 0.00 1.75 0.15 50 1014.3
20260506223007 12 274 4.8 12.9 0.00 1.75 0.15 51 1014.3
20260506222906 12 260 6.4 12.9 0.00 1.75 0.15 50 1014.3
20260506222806 12 290 6.4 12.9 0.00 1.75 0.15 50 1014.3
20260506222706 12 302 8.0 12.9 0.00 1.75 0.15 50 1014.3
20260506222606 12 284 4.8 12.9 0.00 1.75 0.15 51 1013.9
20260506222507 12 294 3.2 12.9 0.00 1.75 0.15 51 1013.9
20260506222407 12 301 3.2 19.3 0.00 1.75 0.15 50 1013.9
20260506222307 12 281 6.4 19.3 0.00 1.75 0.15 50 1013.9
20260506222207 12 293 8.0 19.3 0.00 1.75 0.15 50 1013.9
20260506222107 12 304 8.0 19.3 0.00 1.75 0.15 50 1013.9
20260506222007 12 359 4.8 19.3 0.00 1.75 0.15 50 1013.9
20260506221907 12 319 3.2 19.3 0.00 1.75 0.15 50 1013.9
20260506221807 12 312 4.8 19.3 0.00 1.75 0.15 50 1013.9
20260506221707 12 311 6.4 19.3 0.00 1.75 0.15 50 1013.9
20260506221606 12 349 6.4 19.3 0.00 1.75 0.15 49 1013.9
20260506221506 12 281 9.7 19.3 0.00 1.75 0.15 49 1013.9
20260506221406 12 305 8.0 12.9 0.00 1.75 0.15 50 1013.9
20260506221306 12 318 9.7 12.9 0.00 1.75 0.15 50 1013.9
20260506221206 12 335 4.8 16.1 0.00 1.75 0.15 50 1013.9
20260506221107 12 336 8.0 16.1 0.00 1.75 0.15 49 1013.6
20260506221006 12 326 4.8 16.1 0.00 1.75 0.15 50 1013.6
20260506220907 12 288 6.4 16.1 0.00 1.75 0.15 49 1013.6
20260506220807 12 284 4.8 16.1 0.00 1.75 0.15 49 1013.6
20260506220706 12 277 8.0 16.1 0.00 1.75 0.15 48 1013.6
20260506220606 12 263 4.8 16.1 0.00 1.75 0.15 49 1013.6
20260506220507 12 270 4.8 16.1 0.00 1.75 0.15 49 1013.6
20260506220407 12 288 4.8 16.1 0.00 1.75 0.15 49 1013.6
20260506220307 12 329 9.7 16.1 0.00 1.75 0.15 48 1013.6
20260506220207 12 281 6.4 16.1 0.00 1.75 0.15 48 1013.6
20260506220106 12 283 4.8 16.1 0.00 1.75 0.15 50 1013.6
20260506220007 12 308 1.6 16.1 0.00 1.75 0.15 50 1013.6
20260506215907 12 314 6.4 16.1 0.00 1.75 0.15 49 1013.6
20260506215806 12 294 8.0 16.1 0.00 1.75 0.15 49 1013.6
20260506215707 12 274 4.8 16.1 0.00 1.75 0.15 49 1013.6
20260506215607 12 291 8.0 16.1 0.00 1.75 0.15 48 1013.6
20260506215506 12 295 8.0 16.1 0.00 1.75 0.15 48 1013.6
20260506215407 12 318 8.0 16.1 0.00 1.75 0.15 48 1013.6
20260506215307 12 321 8.0 16.1 0.00 1.75 0.15 47 1013.6
20260506215206 12 267 3.2 16.1 0.00 1.75 0.15 50 1013.6
20260506215107 12 322 3.2 16.1 0.00 1.75 0.15 49 1013.6
20260506215007 12 283 8.0 16.1 0.00 1.75 0.15 48 1013.6
20260506214907 12 319 4.8 16.1 0.00 1.75 0.15 48 1013.6
20260506214807 12 302 9.7 16.1 0.00 1.75 0.15 48 1013.6
20260506214707 12 290 9.7 16.1 0.00 1.75 0.15 48 1013.6
20260506214607 12 323 1.6 16.1 0.00 1.75 0.15 49 1013.6
20260506214507 12 328 1.6 16.1 0.00 1.75 0.15 48 1013.6
20260506214406 12 308 4.8 16.1 0.00 1.75 0.15 47 1013.6
20260506214307 12 316 9.7 16.1 0.00 1.75 0.15 46 1013.6
20260506214207 12 347 6.4 16.1 0.00 1.75 0.15 47 1013.6
20260506214107 12 345 8.0 16.1 0.00 1.75 0.15 47 1013.6
20260506214007 12 314 11.3 16.1 0.00 1.75 0.15 46 1013.6
20260506213907 12 318 9.7 16.1 0.00 1.75 0.15 47 1013.6
20260506213807 12 319 11.3 14.5 0.00 1.75 0.15 47 1013.6
20260506213707 12 343 8.0 14.5 0.00 1.75 0.15 48 1013.6
20260506213607 12 305 8.0 11.3 0.00 1.75 0.15 48 1013.6
20260506213507 12 346 8.0 11.3 0.00 1.75 0.15 48 1013.6
20260506213407 12 290 8.0 11.3 0.00 1.75 0.15 48 1013.6
20260506213307 12 290 3.2 11.3 0.00 1.75 0.15 48 1013.6
20260506213207 12 281 1.6 11.3 0.00 1.75 0.15 48 1013.6
20260506213107 12 281 4.8 11.3 0.00 1.75 0.15 47 1013.6
20260506213006 12 300 4.8 11.3 0.00 1.75 0.15 47 1013.6
20260506212907 12 218 3.2 11.3 0.00 1.75 0.15 47 1013.6
20260506212807 12 300 6.4 14.5 0.00 1.75 0.15 46 1013.6
20260506212706 12 291 6.4 14.5 0.00 1.75 0.15 45 1013.6
20260506212607 12 284 3.2 14.5 0.00 1.75 0.15 45 1013.6
20260506212507 12 266 1.6 14.5 0.00 1.75 0.15 45 1013.6
20260506212406 12 198 3.2 14.5 0.00 1.75 0.15 44 1013.6
20260506212307 12 277 4.8 14.5 0.00 1.75 0.15 45 1013.6
20260506212206 12 280 3.2 14.5 0.00 1.75 0.15 46 1013.2
20260506212107 12 287 4.8 14.5 0.00 1.75 0.15 46 1013.2
20260506212007 12 328 6.4 14.5 0.00 1.75 0.15 46 1013.2
20260506211907 12 312 9.7 14.5 0.00 1.75 0.15 45 1013.2
20260506211807 12 283 6.4 14.5 0.00 1.75 0.15 46 1013.2
20260506211707 12 274 6.4 14.5 0.00 1.75 0.15 46 1013.2
20260506211607 12 273 4.8 16.1 0.00 1.75 0.15 49 1013.2
20260506211507 12 284 1.6 16.1 0.00 1.75 0.15 49 1013.2
20260506211407 12 308 3.2 16.1 0.00 1.75 0.15 48 1013.2
20260506211307 12 201 4.8 16.1 0.00 1.75 0.15 48 1013.2
20260506211207 12 301 6.4 16.1 0.00 1.75 0.15 48 1013.2
20260506211107 12 285 3.2 17.7 0.00 1.75 0.15 50 1013.2
20260506211007 12 326 6.4 17.7 0.00 1.75 0.15 49 1013.2
20260506210907 12 326 6.4 17.7 0.00 1.75 0.15 49 1013.2
20260506210807 12 318 8.0 17.7 0.00 1.75 0.15 48 1013.2
20260506210707 12 307 9.7 17.7 0.00 1.75 0.15 47 1013.2
20260506210607 12 350 8.0 17.7 0.00 1.75 0.15 48 1013.2
20260506210507 12 1 6.4 17.7 0.00 1.75 0.15 48 1013.2
20260506210407 12 322 6.4 17.7 0.00 1.75 0.15 48 1013.2
20260506210307 12 297 8.0 17.7 0.00 1.75 0.15 47 1013.2
20260506210207 12 314 11.3 17.7 0.00 1.75 0.15 48 1013.2
20260506210106 12 311 8.0 14.5 0.00 1.75 0.15 48 1013.2
20260506210007 12 284 9.7 16.1 0.00 1.75 0.15 50 1013.2
20260506205907 12 329 6.4 16.1 0.00 1.75 0.15 49 1013.2
20260506205807 12 298 6.4 16.1 0.00 1.75 0.15 49 1013.2
20260506205707 12 276 8.0 16.1 0.00 1.75 0.15 48 1013.2
20260506205607 12 295 6.4 16.1 0.00 1.75 0.15 49 1013.2
20260506205506 12 280 9.7 17.7 0.00 1.75 0.15 48 1013.2
20260506205406 12 308 6.4 17.7 0.00 1.75 0.15 49 1013.2
20260506205307 12 340 8.0 17.7 0.00 1.75 0.15 48 1013.6
20260506205207 12 300 9.7 17.7 0.00 1.75 0.15 48 1013.6
20260506205107 12 322 11.3 17.7 0.00 1.75 0.15 48 1013.2
20260506205007 12 340 8.0 17.7 0.00 1.75 0.15 48 1013.6
20260506204907 12 309 9.7 17.7 0.00 1.75 0.15 49 1013.6
20260506204807 12 298 6.4 17.7 0.00 1.75 0.15 50 1013.6
20260506204707 12 325 8.0 17.7 0.00 1.75 0.15 50 1013.2
20260506204607 12 300 11.3 17.7 0.00 1.75 0.15 49 1013.2
20260506204507 12 338 9.7 14.5 0.00 1.75 0.15 49 1013.2
20260506204407 12 284 3.2 12.9 0.00 1.75 0.15 51 1013.2
20260506204307 12 285 9.7 14.5 0.00 1.75 0.15 51 1013.2
20260506204207 12 304 6.4 14.5 0.00 1.75 0.15 52 1013.2
20260506204107 12 321 6.4 14.5 0.00 1.75 0.15 52 1013.2
20260506204007 12 330 6.4 14.5 0.00 1.75 0.15 51 1013.2
20260506203907 12 311 9.7 14.5 0.00 1.75 0.15 50 1013.2
20260506203807 12 314 8.0 14.5 0.00 1.75 0.15 51 1013.2
20260506203707 12 336 6.4 14.5 0.00 1.75 0.15 51 1013.2
20260506203607 12 329 6.4 14.5 0.00 1.75 0.15 51 1013.2
20260506203507 12 315 8.0 16.1 0.00 1.75 0.15 52 1013.2
20260506203407 12 343 9.7 16.1 0.00 1.75 0.15 52 1013.2
20260506203307 12 287 8.0 16.1 0.00 1.75 0.15 52 1013.2
20260506203207 12 276 1.6 16.1 0.00 1.75 0.15 52 1013.2
20260506203107 12 298 1.6 16.1 0.00 1.75 0.15 52 1013.2
20260506203007 12 293 4.8 17.7 0.00 1.75 0.15 50 1013.2
20260506202907 12 280 9.7 17.7 0.00 1.75 0.15 50 1013.2
20260506202807 12 262 4.8 17.7 0.00 1.75 0.15 51 1013.2
20260506202707 12 285 6.4 17.7 0.00 1.75 0.15 49 1013.2
20260506202607 12 297 9.7 17.7 0.00 1.75 0.15 49 1013.2
20260506202507 12 276 4.8 17.7 0.00 1.75 0.15 51 1013.2
20260506202407 12 342 4.8 17.7 0.00 1.75 0.15 50 1013.2
20260506202307 12 322 8.0 17.7 0.00 1.75 0.15 50 1013.6
20260506202207 12 300 9.7 17.7 0.00 1.75 0.15 50 1013.6
20260506202107 12 308 8.0 17.7 0.00 1.75 0.15 51 1013.6
20260506202007 12 297 8.0 16.1 0.00 1.75 0.15 52 1013.2
20260506201907 12 323 9.7 14.5 0.00 1.75 0.15 52 1013.2
20260506201807 12 339 8.0 12.9 0.00 1.75 0.15 52 1013.2
20260506201706 12 1 8.0 12.9 0.00 1.75 0.15 52 1013.2
20260506201607 12 350 8.0 16.1 0.00 1.75 0.15 51 1013.6
20260506201507 12 4 8.0 16.1 0.00 1.75 0.15 51 1013.2
20260506201407 12 347 8.0 16.1 0.00 1.75 0.15 51 1013.2
20260506201307 12 329 3.2 16.1 0.00 1.75 0.15 52 1013.2
20260506201207 12 284 6.4 16.1 0.00 1.75 0.15 51 1013.2
20260506201107 12 3 8.0 16.1 0.00 1.75 0.15 52 1013.2
20260506201007 12 20 6.4 16.1 0.00 1.75 0.15 52 1013.2
20260506200907 12 300 4.8 16.1 0.00 1.75 0.15 51 1013.2
20260506200807 12 297 9.7 16.1 0.00 1.75 0.15 51 1013.2
20260506200707 12 304 9.7 16.1 0.00 1.75 0.15 51 1013.2
20260506200607 12 298 9.7 16.1 0.00 1.75 0.15 51 1013.2
20260506200507 12 325 9.7 16.1 0.00 1.75 0.15 51 1013.2
20260506200407 12 301 11.3 16.1 0.00 1.75 0.15 50 1013.2
20260506200307 12 323 6.4 12.9 0.00 1.75 0.15 51 1013.2
20260506200207 12 336 6.4 12.9 0.00 1.75 0.15 52 1013.2
20260506200107 12 319 9.7 12.9 0.00 1.75 0.15 51 1013.2
20260506200007 12 345 6.4 12.9 0.00 1.75 0.15 51 1013.2
20260506195907 12 359 9.7 12.9 0.00 1.75 0.15 51 1013.2
20260506195807 12 314 4.8 12.9 0.00 1.75 0.15 51 1013.2
20260506195707 12 294 4.8 12.9 0.00 1.75 0.15 52 1013.2
20260506195607 12 284 8.0 12.9 0.00 1.75 0.15 51 1013.2
20260506195507 12 298 8.0 12.9 0.00 1.75 0.15 52 1013.2
20260506195407 12 311 4.8 12.9 0.00 1.75 0.15 53 1013.2
20260506195307 12 346 1.6 12.9 0.00 1.75 0.15 52 1013.2
20260506195207 12 274 3.2 12.9 0.00 1.75 0.15 52 1013.2
20260506195107 12 290 6.4 12.9 0.00 1.75 0.15 52 1013.2
20260506195007 12 319 3.2 14.5 0.00 1.75 0.15 52 1013.2
20260506194907 12 297 4.8 14.5 0.00 1.75 0.15 51 1013.2
20260506194807 12 316 6.4 14.5 0.00 1.75 0.15 51 1013.2
20260506194707 12 302 8.0 14.5 0.00 1.75 0.15 50 1013.2
20260506194607 12 293 8.0 14.5 0.00 1.75 0.15 51 1013.2
20260506194507 12 347 9.7 14.5 0.00 1.75 0.15 51 1013.2
20260506194407 12 316 6.4 14.5 0.00 1.75 0.15 52 1013.2
20260506194307 12 332 6.4 14.5 0.00 1.75 0.15 51 1013.2
20260506194207 12 276 4.8 14.5 0.00 1.75 0.15 52 1013.2
20260506194107 12 308 8.0 14.5 0.00 1.75 0.15 51 1013.2
20260506194007 12 280 8.0 12.9 0.00 1.75 0.15 52 1013.2
20260506193907 12 295 6.4 12.9 0.00 1.75 0.15 52 1013.2
20260506193807 12 281 6.4 9.7 0.00 1.75 0.15 51 1013.2
20260506193707 12 278 4.8 9.7 0.00 1.75 0.15 51 1013.2
20260506193607 12 291 6.4 9.7 0.00 1.75 0.15 51 1013.6
20260506193507 12 318 1.6 9.7 0.00 1.75 0.15 52 1013.2
20260506193407 12 330 3.2 9.7 0.00 1.75 0.15 53 1013.2
20260506193307 12 271 6.4 9.7 0.00 1.75 0.15 52 1013.2
20260506193207 12 294 4.8 9.7 0.00 1.75 0.15 51 1013.2
20260506193107 12 211 4.8 12.9 0.00 1.75 0.15 53 1013.2
20260506193007 12 305 4.8 12.9 0.00 1.75 0.15 52 1013.2
20260506192907 12 335 4.8 16.1 0.00 1.75 0.15 52 1013.2
20260506192807 12 298 4.8 16.1 0.00 1.75 0.15 52 1013.2
20260506192707 12 281 4.8 16.1 0.00 1.75 0.15 52 1013.6
20260506192607 12 301 3.2 16.1 0.00 1.75 0.15 52 1013.6
20260506192507 12 276 3.2 16.1 0.00 1.75 0.15 51 1013.6
20260506192407 12 264 4.8 16.1 0.00 1.75 0.15 51 1013.6
20260506192307 12 300 6.4 16.1 0.00 1.75 0.15 50 1013.6
20260506192207 12 295 6.4 16.1 0.00 1.75 0.15 50 1013.6
20260506192107 12 285 9.7 16.1 0.00 1.75 0.15 50 1013.6
20260506192007 12 277 8.0 16.1 0.00 1.75 0.15 50 1013.6
20260506191907 12 347 8.0 16.1 0.00 1.75 0.15 49 1013.6
20260506191807 12 264 8.0 16.1 0.00 1.75 0.15 50 1013.6
20260506191707 12 359 8.0 16.1 0.00 1.75 0.15 49 1013.6
20260506191607 12 318 9.7 16.1 0.00 1.75 0.15 48 1013.6
20260506191507 12 312 8.0 14.5 0.00 1.75 0.15 49 1013.6
20260506191407 12 318 8.0 14.5 0.00 1.75 0.15 48 1013.6
20260506191307 12 276 6.4 14.5 0.00 1.75 0.15 49 1013.6
20260506191207 12 309 6.4 14.5 0.00 1.75 0.15 50 1013.6
20260506191107 12 357 9.7 14.5 0.00 1.75 0.15 49 1013.6
20260506191007 12 300 6.4 14.5 0.00 1.75 0.15 50 1013.2
20260506190907 12 290 4.8 14.5 0.00 1.75 0.15 50 1013.2
20260506190807 12 274 4.8 16.1 0.00 1.75 0.15 50 1013.2
20260506190707 12 315 6.4 16.1 0.00 1.75 0.15 50 1013.6
20260506190607 12 308 6.4 16.1 0.00 1.75 0.15 50 1013.2
20260506190507 12 302 3.2 16.1 0.00 1.75 0.15 49 1013.2
20260506190407 12 263 8.0 16.1 0.00 1.75 0.15 48 1013.2
20260506190307 12 316 9.7 16.1 0.00 1.75 0.15 49 1013.2
20260506190207 12 326 11.3 16.1 0.00 1.75 0.15 48 1013.2
20260506190107 12 328 9.7 16.1 0.00 1.75 0.15 48 1013.2
20260506190007 12 312 9.7 16.1 0.00 1.75 0.15 48 1013.2
20260506185907 12 274 8.0 16.1 0.00 1.75 0.15 48 1013.2
20260506185807 12 311 4.8 14.5 0.00 1.75 0.15 50 1013.2
20260506185707 12 315 3.2 14.5 0.00 1.75 0.15 49 1013.2
20260506185607 12 305 4.8 14.5 0.00 1.75 0.15 49 1013.2
20260506185507 12 263 6.4 14.5 0.00 1.75 0.15 49 1013.2
20260506185407 12 291 4.8 14.5 0.00 1.75 0.15 48 1013.2
20260506185307 12 325 8.0 14.5 0.00 1.75 0.15 46 1013.2
20260506185207 12 270 6.4 14.5 0.00 1.75 0.15 48 1013.2
20260506185107 12 311 9.7 14.5 0.00 1.75 0.15 47 1013.6
20260506185007 12 267 8.0 14.5 0.00 1.75 0.15 47 1013.6
20260506184907 12 269 8.0 14.5 0.00 1.75 0.15 48 1013.2
20260506184807 12 291 4.8 14.5 0.00 1.75 0.15 49 1013.2
20260506184707 12 284 9.7 14.5 0.00 1.75 0.15 47 1013.2
20260506184607 12 297 6.4 14.5 0.00 1.75 0.15 50 1013.2
20260506184507 12 280 1.6 12.9 0.00 1.75 0.15 50 1013.2
20260506184407 12 300 6.4 12.9 0.00 1.75 0.15 49 1013.2
20260506184307 12 293 3.2 12.9 0.00 1.75 0.15 51 1013.2
20260506184207 12 281 4.8 14.5 0.00 1.75 0.15 51 1013.2
20260506184107 12 329 6.4 14.5 0.00 1.75 0.15 50 1013.2
20260506184007 12 283 6.4 14.5 0.00 1.75 0.15 50 1013.2
20260506183907 12 295 6.4 14.5 0.00 1.75 0.15 51 1013.2
20260506183807 12 304 6.4 14.5 0.00 1.75 0.15 51 1013.2
20260506183707 12 304 8.0 14.5 0.00 1.75 0.15 50 1013.2
20260506183607 12 300 6.4 14.5 0.00 1.75 0.15 50 1013.2
20260506183507 12 285 4.8 14.5 0.00 1.75 0.15 50 1013.2
20260506183407 12 270 6.4 14.5 0.00 1.75 0.15 50 1013.2
20260506183307 12 281 4.8 14.5 0.00 1.75 0.15 50 1013.2
20260506183207 12 305 4.8 12.9 0.00 1.75 0.15 50 1013.2
20260506183107 12 330 6.4 16.1 0.00 1.75 0.15 49 1013.2
20260506183007 12 315 3.2 16.1 0.00 1.75 0.15 49 1013.2
20260506182907 12 249 3.2 16.1 0.00 1.75 0.15 49 1013.2
20260506182807 12 335 1.6 16.1 0.00 1.75 0.15 49 1013.2
20260506182707 12 335 4.8 16.1 0.00 1.75 0.15 48 1013.2
20260506182607 12 294 6.4 16.1 0.00 1.75 0.15 49 1013.2
20260506182507 12 301 8.0 16.1 0.00 1.75 0.15 50 1013.2
20260506182407 12 315 8.0 16.1 0.00 1.75 0.15 49 1013.2
20260506182307 12 287 6.4 16.1 0.00 1.75 0.15 50 1013.2
20260506182207 12 288 6.4 16.1 0.00 1.75 0.15 49 1013.2
20260506182107 12 285 9.7 14.5 0.00 1.75 0.15 48 1012.9
20260506182007 12 278 9.7 12.9 0.00 1.75 0.15 49 1012.9
20260506181907 12 307 6.4 12.9 0.00 1.75 0.15 49 1012.9
20260506181807 12 276 6.4 14.5 0.00 1.75 0.15 50 1012.9
20260506181707 12 332 4.8 14.5 0.00 1.75 0.15 49 1012.9
20260506181607 12 284 3.2 14.5 0.00 1.75 0.15 50 1012.9
20260506181507 12 315 6.4 14.5 0.00 1.75 0.15 50 1012.9
20260506181407 12 359 8.0 14.5 0.00 1.75 0.15 49 1013.2
20260506181307 12 336 4.8 14.5 0.00 1.75 0.15 51 1013.2
20260506181207 12 309 8.0 14.5 0.00 1.75 0.15 50 1013.2
20260506181107 12 340 8.0 14.5 0.00 1.75 0.15 50 1013.2
20260506181007 12 336 9.7 14.5 0.00 1.75 0.15 50 1013.2
20260506180907 12 339 11.3 14.5 0.00 1.75 0.15 49 1013.2
20260506180807 12 302 8.0 14.5 0.00 1.75 0.15 49 1013.2
20260506180707 12 291 8.0 14.5 0.00 1.75 0.15 49 1013.2
20260506180607 12 326 9.7 14.5 0.00 1.75 0.15 48 1013.2
20260506180507 12 280 9.7 14.5 0.00 1.75 0.15 49 1013.2
20260506180407 12 325 6.4 14.5 0.00 1.75 0.15 49 1013.2
20260506180307 12 294 4.8 12.9 0.00 1.75 0.15 49 1013.2
20260506180207 12 316 3.2 12.9 0.00 1.75 0.15 50 1013.2
20260506180107 12 294 4.8 12.9 0.00 1.75 0.15 49 1013.6
20260506180007 12 276 4.8 12.9 0.00 1.75 0.15 50 1013.6
20260506175907 12 307 4.8 12.9 0.00 1.75 0.15 50 1013.6
20260506175807 12 236 6.4 12.9 0.00 1.75 0.15 50 1013.6
20260506175707 12 273 6.4 12.9 0.00 1.75 0.15 50 1013.6
20260506175607 12 293 6.4 14.5 0.00 1.75 0.15 50 1013.6
20260506175507 12 273 8.0 14.5 0.00 1.75 0.15 49 1013.6
20260506175407 12 287 6.4 16.1 0.00 1.75 0.15 52 1013.6
20260506175307 12 339 4.8 24.1 0.00 1.75 0.15 52 1013.6
20260506175207 12 287 4.8 24.1 0.00 1.75 0.15 53 1013.6
20260506175107 12 298 3.2 24.1 0.00 1.75 0.15 52 1013.6
20260506175007 12 304 6.4 24.1 0.00 1.75 0.15 52 1013.2
20260506174907 12 312 8.0 24.1 0.00 1.75 0.15 51 1013.2
20260506174807 12 308 6.4 24.1 0.00 1.75 0.15 51 1013.2
20260506174707 12 345 11.3 24.1 0.00 1.75 0.15 49 1013.2
20260506174607 12 343 11.3 24.1 0.00 1.75 0.15 49 1013.2
20260506174507 12 340 12.9 24.1 0.00 1.75 0.15 50 1013.2
20260506174407 12 346 14.5 24.1 0.00 1.75 0.15 51 1013.6
20260506174307 12 13 9.7 17.7 0.00 1.75 0.15 52 1013.6
20260506174207 12 325 6.4 14.5 0.00 1.75 0.15 52 1013.6
20260506174107 12 276 9.7 14.5 0.00 1.75 0.15 51 1013.6
20260506174007 12 273 6.4 14.5 0.00 1.75 0.15 52 1013.6
20260506173907 12 195 3.2 14.5 0.00 1.75 0.15 52 1013.6
20260506173807 12 322 6.4 16.1 0.00 1.75 0.15 51 1013.6
20260506173707 12 312 9.7 16.1 0.00 1.75 0.15 50 1013.6
20260506173607 12 338 9.7 16.1 0.00 1.75 0.15 51 1013.6
20260506173507 12 280 6.4 16.1 0.00 1.75 0.15 50 1013.6
20260506173407 12 304 8.0 16.1 0.00 1.75 0.15 50 1013.6
20260506173307 12 322 8.0 16.1 0.00 1.75 0.15 50 1013.2
20260506173207 12 269 6.4 16.1 0.00 1.75 0.15 50 1013.2
20260506173107 12 264 8.0 16.1 0.00 1.75 0.15 50 1013.2
20260506173007 12 287 8.0 17.7 0.00 1.75 0.15 51 1013.2
20260506172907 12 283 9.7 19.3 0.00 1.75 0.15 51 1013.2
20260506172807 13 242 8.0 19.3 0.00 1.75 0.15 52 1013.2
20260506172707 12 354 11.3 20.9 0.00 1.75 0.15 51 1013.2
20260506172607 12 354 9.7 20.9 0.00 1.75 0.15 51 1013.2
20260506172507 12 311 11.3 20.9 0.00 1.75 0.15 50 1013.2
20260506172407 12 345 9.7 20.9 0.00 1.75 0.15 52 1013.2
20260506172307 12 309 11.3 20.9 0.00 1.75 0.15 53 1013.2
20260506172207 12 338 11.3 20.9 0.00 1.75 0.15 52 1013.2
20260506172107 12 340 11.3 20.9 0.00 1.75 0.15 53 1013.2
20260506172007 12 332 11.3 20.9 0.00 1.75 0.15 53 1012.9
20260506171907 13 328 6.4 24.1 0.00 1.75 0.15 53 1012.9
20260506171807 12 319 16.1 24.1 0.00 1.75 0.15 51 1012.9
20260506171707 12 343 14.5 24.1 0.00 1.75 0.15 50 1012.9
20260506171607 13 350 9.7 24.1 0.00 1.75 0.15 52 1012.9
20260506171507 13 291 9.7 24.1 0.00 1.75 0.15 51 1012.9
20260506171407 13 290 8.0 24.1 0.00 1.75 0.15 52 1012.9
20260506171307 13 233 6.4 24.1 0.00 1.75 0.15 51 1012.9
20260506171207 13 300 8.0 24.1 0.00 1.75 0.15 52 1012.9
20260506171107 13 300 9.7 24.1 0.00 1.75 0.15 52 1012.9
20260506171007 13 291 6.4 24.1 0.00 1.75 0.15 53 1012.9
20260506170907 13 300 4.8 16.1 0.00 1.75 0.15 53 1012.9
20260506170807 13 340 9.7 16.1 0.00 1.75 0.15 53 1013.2
20260506170707 13 297 8.0 16.1 0.00 1.75 0.15 53 1013.2
20260506170607 13 285 8.0 17.7 0.00 1.75 0.15 52 1013.2
20260506170507 13 332 3.2 19.3 0.00 1.75 0.15 53 1013.2
20260506170407 13 322 6.4 19.3 0.00 1.75 0.15 52 1013.2
20260506170307 13 323 11.3 19.3 0.00 1.75 0.15 52 1013.2
20260506170207 13 325 9.7 19.3 0.00 1.75 0.15 52 1013.2
20260506170107 13 352 9.7 19.3 0.00 1.75 0.15 52 1013.2
20260506170007 13 288 8.0 19.3 0.00 1.75 0.15 53 1013.2
20260506165907 13 297 8.0 19.3 0.00 1.75 0.15 53 1013.2
20260506165807 13 269 9.7 19.3 0.00 1.75 0.15 53 1013.2
20260506165707 13 280 12.9 19.3 0.00 1.75 0.15 51 1013.2
20260506165607 13 347 12.9 19.3 0.00 1.75 0.15 51 1013.2
20260506165507 13 294 11.3 17.7 0.00 1.75 0.15 53 1013.2
20260506165407 13 314 6.4 17.7 0.00 1.75 0.15 54 1013.2
20260506165307 13 298 6.4 17.7 0.00 1.75 0.15 54 1013.2
20260506165207 13 359 8.0 19.3 0.00 1.75 0.15 53 1013.2
20260506165107 13 325 11.3 19.3 0.00 1.75 0.15 53 1013.2
20260506165007 13 302 9.7 24.1 0.00 1.75 0.15 53 1013.6
20260506164907 13 285 11.3 24.1 0.00 1.75 0.15 53 1013.6
20260506164807 13 338 6.4 24.1 0.00 1.75 0.15 53 1013.6
20260506164707 13 330 9.7 24.1 0.00 1.75 0.15 51 1013.2
20260506164607 13 335 8.0 24.1 0.00 1.75 0.15 52 1013.6
20260506164507 13 359 12.9 24.1 0.00 1.75 0.15 51 1013.6
20260506164407 13 349 9.7 24.1 0.00 1.75 0.15 54 1013.2
20260506164307 13 304 12.9 24.1 0.00 1.75 0.15 52 1013.2
20260506164207 13 308 8.0 24.1 0.00 1.75 0.15 51 1013.2
20260506164107 13 277 12.9 24.1 0.00 1.75 0.15 52 1013.2
20260506164007 13 316 4.8 17.7 0.00 1.75 0.15 55 1013.2
20260506163907 13 329 6.4 17.7 0.00 1.75 0.15 53 1013.2
20260506163807 13 343 11.3 17.7 0.00 1.75 0.15 52 1013.2
20260506163707 13 339 12.9 17.7 0.00 1.75 0.15 57 1013.2
20260506163607 13 359 11.3 16.1 0.00 1.75 0.15 54 1013.2
20260506163507 13 328 8.0 16.1 0.00 1.75 0.15 54 1013.2
20260506163407 13 343 8.0 16.1 0.00 1.75 0.15 54 1013.2
20260506163307 12 347 11.3 16.1 0.00 1.75 0.15 53 1013.2
20260506163207 13 332 8.0 16.1 0.00 1.75 0.15 54 1013.2
20260506163107 13 301 8.0 14.5 0.00 1.75 0.15 55 1013.2
20260506163007 13 350 9.7 16.1 0.00 1.75 0.15 56 1013.2
20260506162907 13 25 9.7 16.1 0.00 1.75 0.15 57 1013.2
20260506162807 13 339 6.4 16.1 0.00 1.75 0.15 56 1013.2
20260506162707 13 322 11.3 16.1 0.00 1.75 0.15 56 1013.2
20260506162607 13 349 8.0 16.1 0.00 1.75 0.15 56 1013.2
20260506162507 13 319 9.7 16.1 0.00 1.75 0.15 56 1013.2
20260506162407 13 256 8.0 16.1 0.00 1.75 0.15 56 1013.2
20260506162307 12 294 8.0 16.1 0.00 1.75 0.15 56 1013.2
20260506162207 12 263 8.0 17.7 0.00 1.75 0.15 57 1012.9
20260506162107 13 302 8.0 17.7 0.00 1.75 0.15 57 1012.9
20260506162007 12 322 8.0 17.7 0.00 1.75 0.15 57 1012.9
20260506161907 12 343 4.8 17.7 0.00 1.75 0.15 58 1012.9
20260506161807 12 3 9.7 17.7 0.00 1.75 0.15 58 1012.9
20260506161707 12 343 8.0 17.7 0.00 1.75 0.15 57 1012.9
20260506161607 12 332 9.7 17.7 0.00 1.75 0.15 57 1012.9
20260506161507 12 353 11.3 17.7 0.00 1.75 0.15 57 1012.9
20260506161407 12 347 11.3 19.3 0.00 1.75 0.15 57 1012.9
20260506161307 12 342 12.9 19.3 0.00 1.75 0.15 57 1013.2
20260506161207 12 330 8.0 19.3 0.00 1.75 0.15 56 1013.2
20260506161107 12 342 11.3 19.3 0.00 1.75 0.15 56 1013.2
20260506161007 12 332 12.9 19.3 0.00 1.75 0.15 56 1013.2
20260506160907 12 322 9.7 19.3 0.00 1.75 0.15 58 1013.2
20260506160807 12 273 8.0 19.3 0.00 1.75 0.15 57 1013.2
20260506160707 12 309 9.7 19.3 0.00 1.75 0.15 56 1013.2
20260506160607 12 329 11.3 19.3 0.00 1.75 0.15 58 1013.2
20260506160507 12 290 9.7 19.3 0.00 1.75 0.15 59 1013.2
20260506160407 12 283 8.0 19.3 0.00 1.75 0.15 59 1013.2
20260506160307 12 211 9.7 19.3 0.00 1.75 0.15 58 1012.9
20260506160207 12 305 12.9 19.3 0.00 1.75 0.15 57 1012.9
20260506160107 12 309 12.9 22.5 0.00 1.75 0.15 58 1012.9
20260506160007 12 333 11.3 22.5 0.00 1.75 0.15 57 1012.9
20260506155907 12 304 8.0 22.5 0.00 1.75 0.15 58 1012.9
20260506155807 12 311 8.0 22.5 0.00 1.75 0.15 60 1012.9
20260506155707 12 305 6.4 22.5 0.00 1.75 0.15 59 1012.9
20260506155607 12 323 8.0 22.5 0.00 1.75 0.15 58 1012.9
20260506155507 12 353 11.3 22.5 0.00 1.75 0.15 57 1013.2
20260506155407 12 340 9.7 22.5 0.00 1.75 0.15 58 1012.9
20260506155307 12 332 12.9 22.5 0.00 1.75 0.15 56 1013.2
20260506155207 12 322 12.9 22.5 0.00 1.75 0.15 60 1013.2
20260506155107 12 326 8.0 16.1 0.00 1.75 0.15 60 1013.2
20260506155007 12 340 9.7 16.1 0.00 1.75 0.15 58 1013.2
20260506154907 12 307 6.4 17.7 0.00 1.75 0.15 59 1013.2
20260506154807 12 302 11.3 17.7 0.00 1.75 0.15 57 1013.2
20260506154707 12 345 6.4 17.7 0.00 1.75 0.15 57 1013.2
20260506154607 12 330 6.4 17.7 0.00 1.75 0.15 56 1013.2
20260506154507 12 318 4.8 17.7 0.00 1.75 0.15 58 1013.2
20260506154407 12 312 9.7 17.7 0.00 1.75 0.15 58 1013.2
20260506154307 12 346 8.0 17.7 0.00 1.75 0.15 57 1013.2
20260506154207 12 304 8.0 17.7 0.00 1.75 0.15 56 1013.2
20260506154107 12 301 6.4 24.1 0.00 1.75 0.15 56 1013.2
20260506154007 12 285 11.3 24.1 0.00 1.75 0.15 56 1013.2
20260506153907 12 353 14.5 24.1 0.00 1.75 0.15 58 1013.2
20260506153807 12 329 9.7 24.1 0.00 1.75 0.15 60 1013.2
20260506153707 12 326 9.7 24.1 0.00 1.75 0.15 60 1013.2
20260506153607 12 319 8.0 24.1 0.00 1.75 0.15 60 1013.2
20260506153507 12 287 6.4 24.1 0.00 1.75 0.15 60 1013.2
20260506153407 12 332 9.7 24.1 0.00 1.75 0.15 60 1013.2
20260506153307 12 248 9.7 24.1 0.00 1.75 0.15 59 1013.2
20260506153207 12 336 16.1 24.1 0.00 1.75 0.15 60 1013.2
20260506153107 12 329 8.0 14.5 0.00 1.75 0.15 63 1013.2
20260506153007 12 347 9.7 14.5 0.00 1.75 0.15 62 1013.2
20260506152907 12 285 6.4 14.5 0.00 1.75 0.15 62 1012.9
20260506152807 12 280 4.8 14.5 0.00 1.75 0.15 62 1012.9
20260506152707 12 290 9.7 14.5 0.00 1.75 0.15 63 1012.9
20260506152607 12 332 8.0 14.5 0.00 1.75 0.15 62 1012.9
20260506152507 12 349 4.8 14.5 0.00 1.75 0.15 63 1012.9
20260506152407 12 300 9.7 14.5 0.00 1.75 0.15 62 1012.9
20260506152307 12 285 8.0 17.7 0.00 1.75 0.15 61 1012.9
20260506152207 12 329 6.4 17.7 0.00 1.75 0.15 60 1012.9
20260506152107 11 359 8.0 17.7 0.00 1.75 0.15 59 1012.9
20260506152007 11 290 8.0 17.7 0.00 1.75 0.15 62 1012.9
20260506151907 11 302 6.4 17.7 0.00 1.75 0.15 62 1012.9
20260506151807 11 290 4.8 17.7 0.00 1.75 0.15 62 1012.9
20260506151707 11 288 9.7 17.7 0.00 1.75 0.15 61 1012.9
20260506151607 11 243 9.7 17.7 0.00 1.75 0.15 63 1012.9
20260506151507 11 345 9.7 17.7 0.00 1.75 0.15 62 1012.9
20260506151407 11 326 12.9 17.7 0.00 1.75 0.15 63 1012.9
20260506151307 11 8 6.4 17.7 0.00 1.75 0.15 62 1012.9
20260506151207 11 318 8.0 17.7 0.00 1.75 0.15 63 1012.9
20260506151107 11 325 8.0 17.7 0.00 1.75 0.15 63 1012.9
20260506151007 11 277 6.4 17.7 0.00 1.75 0.15 65 1012.9
20260506150907 11 349 4.8 17.7 0.00 1.75 0.15 63 1012.9
20260506150807 11 325 6.4 17.7 0.00 1.75 0.15 62 1012.6
20260506150707 11 300 9.7 17.7 0.00 1.75 0.15 61 1012.6
20260506150607 11 345 12.9 17.7 0.00 1.75 0.15 60 1012.6
20260506150507 11 347 12.9 17.7 0.00 1.75 0.15 62 1012.6
20260506150407 11 315 11.3 17.7 0.00 1.75 0.15 65 1012.6
20260506150307 11 335 6.4 16.1 0.00 1.75 0.15 66 1012.6
20260506150207 11 308 8.0 16.1 0.00 1.75 0.15 65 1012.6
20260506150107 11 243 3.2 16.1 0.00 1.75 0.15 65 1012.6
20260506150007 11 1 9.7 16.1 0.00 1.75 0.15 65 1012.6
20260506145907 11 321 8.0 16.1 0.00 1.75 0.15 65 1012.6
20260506145807 11 339 6.4 16.1 0.00 1.75 0.15 64 1012.6
20260506145707 11 285 8.0 16.1 0.00 1.75 0.15 64 1012.6
20260506145607 11 325 8.0 16.1 0.00 1.75 0.15 64 1012.6
20260506145507 11 343 12.9 16.1 0.00 1.75 0.15 63 1012.6
20260506145407 11 352 11.3 16.1 0.00 1.75 0.15 65 1012.6
20260506145307 11 325 11.3 16.1 0.00 1.75 0.15 66 1012.6
20260506145207 11 343 9.7 16.1 0.00 1.75 0.15 66 1012.6
20260506145107 11 302 9.7 16.1 0.00 1.75 0.15 65 1012.6
20260506145007 11 359 12.9 16.1 0.00 1.75 0.15 64 1012.6
20260506144907 11 14 9.7 16.1 0.00 1.75 0.15 64 1012.6
20260506144807 11 346 11.3 14.5 0.00 1.75 0.15 63 1012.6
20260506144707 11 336 8.0 14.5 0.00 1.75 0.15 67 1012.2
20260506144607 11 332 6.4 16.1 0.00 1.75 0.15 68 1012.2
20260506144507 11 294 9.7 16.1 0.00 1.75 0.15 68 1012.2
20260506144407 11 332 8.0 16.1 0.00 1.75 0.15 68 1012.6
20260506144307 11 322 9.7 16.1 0.00 1.75 0.15 68 1012.6
20260506144207 11 38 1.6 16.1 0.00 1.75 0.15 69 1012.6
20260506144107 11 304 6.4 16.1 0.00 1.75 0.15 68 1012.6
20260506144007 11 301 6.4 16.1 0.00 1.75 0.15 68 1012.6
20260506143907 11 267 8.0 16.1 0.00 1.75 0.15 70 1012.6
20260506143807 11 288 4.8 16.1 0.00 1.75 0.15 70 1012.6
20260506143707 11 274 9.7 16.1 0.00 1.75 0.15 69 1012.6
20260506143607 11 300 8.0 16.1 0.00 1.75 0.15 69 1012.6
20260506143507 11 293 6.4 16.1 0.00 1.75 0.15 69 1012.6
20260506143407 11 336 3.2 16.1 0.00 1.75 0.15 69 1012.9
20260506143307 11 300 6.4 16.1 0.00 1.75 0.15 68 1012.9
20260506143207 10 243 8.0 16.1 0.00 1.75 0.15 68 1012.9
20260506143107 11 280 8.0 16.1 0.00 1.75 0.15 69 1012.9
20260506143007 10 281 8.0 16.1 0.00 1.75 0.15 70 1012.6
20260506142907 10 284 4.8 16.1 0.00 1.75 0.15 70 1012.6
20260506142807 10 269 3.2 16.1 0.00 1.75 0.15 70 1012.6
20260506142707 10 39 4.8 16.1 0.00 1.75 0.15 70 1012.6
20260506142607 10 347 8.0 16.1 0.00 1.75 0.15 69 1012.6
20260506142507 10 345 11.3 16.1 0.00 1.75 0.15 69 1012.6
20260506142407 10 338 9.7 19.3 0.00 1.75 0.15 70 1012.2
20260506142307 10 354 9.7 19.3 0.00 1.75 0.15 72 1012.2
20260506142207 10 322 11.3 19.3 0.00 1.75 0.15 72 1012.2
20260506142107 10 298 6.4 19.3 0.00 1.75 0.15 72 1012.2
20260506142007 10 295 4.8 19.3 0.00 1.75 0.15 71 1012.2
20260506141907 10 315 8.0 19.3 0.00 1.75 0.15 70 1012.2
20260506141807 10 307 8.0 19.3 0.00 1.75 0.15 71 1012.2
20260506141707 10 300 8.0 19.3 0.00 1.75 0.15 72 1012.6
20260506141607 10 301 9.7 19.3 0.00 1.75 0.15 71 1012.6
20260506141507 10 314 9.7 19.3 0.00 1.75 0.15 71 1012.6
20260506141407 10 302 6.4 16.1 0.00 1.75 0.15 72 1012.6
20260506141307 10 253 9.7 16.1 0.00 1.75 0.15 72 1012.6
20260506141207 10 285 4.8 16.1 0.00 1.75 0.15 72 1012.6
20260506141107 10 305 9.7 16.1 0.00 1.75 0.15 71 1012.6
20260506141007 10 347 9.7 16.1 0.00 1.75 0.15 71 1012.6
20260506140907 10 332 8.0 22.5 0.00 1.75 0.15 73 1012.6
20260506140807 10 319 11.3 22.5 0.00 1.75 0.15 74 1012.6
20260506140707 10 347 9.7 22.5 0.00 1.75 0.15 73 1012.6
20260506140607 9 343 11.3 22.5 0.00 1.75 0.15 72 1012.6
20260506140507 10 342 12.9 22.5 0.00 1.75 0.15 75 1012.6
20260506140407 10 325 6.4 22.5 0.00 1.75 0.15 75 1012.6
20260506140307 10 17 6.4 22.5 0.00 1.75 0.15 74 1012.6
20260506140207 10 307 9.7 22.5 0.00 1.75 0.15 74 1012.6
20260506140107 9 332 9.7 22.5 0.00 1.75 0.15 74 1012.6
20260506140007 9 329 12.9 22.5 0.00 1.75 0.15 73 1012.6
20260506135907 10 283 11.3 17.7 0.00 1.75 0.15 73 1012.6
20260506135807 10 308 6.4 14.5 0.00 1.75 0.15 74 1012.6
20260506135707 10 304 6.4 14.5 0.00 1.75 0.15 74 1012.2
20260506135607 10 278 8.0 14.5 0.00 1.75 0.15 74 1012.2
20260506135507 10 280 11.3 14.5 0.00 1.75 0.15 73 1012.6
20260506135407 10 315 8.0 14.5 0.00 1.75 0.15 74 1012.6
20260506135307 10 297 6.4 12.9 0.00 1.75 0.15 77 1012.2
20260506135207 10 347 3.2 12.9 0.00 1.75 0.15 78 1012.2
20260506135107 10 291 3.2 16.1 0.00 1.75 0.15 77 1012.2
20260506135007 10 276 6.4 16.1 0.00 1.75 0.15 77 1012.2
20260506134907 9 323 9.7 16.1 0.00 1.75 0.15 77 1012.2
20260506134807 9 281 9.7 16.1 0.00 1.75 0.15 78 1012.2
20260506134707 9 336 8.0 16.1 0.00 1.75 0.15 79 1012.2
20260506134607 9 309 4.8 16.1 0.00 1.75 0.15 80 1012.2
20260506134507 9 260 8.0 16.1 0.00 1.75 0.15 78 1012.2
20260506134407 9 326 8.0 16.1 0.00 1.75 0.15 79 1012.2
20260506134307 9 333 6.4 16.1 0.00 1.75 0.15 79 1012.2
20260506134207 9 293 12.9 16.1 0.00 1.75 0.15 79 1012.2
20260506134107 9 350 9.7 12.9 0.00 1.75 0.15 79 1012.2
20260506134007 8 330 8.0 12.9 0.00 1.75 0.15 79 1012.2
20260506133907 9 301 8.0 14.5 0.00 1.75 0.15 80 1011.9
20260506133807 9 285 4.8 14.5 0.00 1.75 0.15 81 1011.9
20260506133707 8 290 6.4 14.5 0.00 1.75 0.15 81 1011.9
20260506133607 8 269 4.8 14.5 0.00 1.75 0.15 81 1011.9
20260506133507 8 291 6.4 14.5 0.00 1.75 0.15 81 1011.9
20260506133407 8 319 6.4 14.5 0.00 1.75 0.15 81 1011.9
20260506133307 8 343 6.4 14.5 0.00 1.75 0.15 80 1011.9
20260506133207 8 345 8.0 14.5 0.00 1.75 0.15 80 1011.9
20260506133107 8 350 8.0 16.1 0.00 1.75 0.15 80 1011.9
20260506133007 8 338 9.7 16.1 0.00 1.75 0.15 79 1011.9
20260506132907 8 318 9.7 16.1 0.00 1.75 0.15 80 1011.9
20260506132807 8 340 8.0 16.1 0.00 1.75 0.15 80 1011.9
20260506132707 8 321 8.0 16.1 0.00 1.75 0.15 80 1011.9
20260506132607 8 37 6.4 16.1 0.00 1.75 0.15 80 1011.9
20260506132507 8 316 8.0 16.1 0.00 1.75 0.15 80 1011.9
20260506132407 8 338 8.0 16.1 0.00 1.75 0.15 80 1011.9
20260506132307 8 326 6.4 16.1 0.00 1.75 0.15 80 1011.9
20260506132207 8 302 11.3 16.1 0.00 1.75 0.15 79 1011.9
20260506132107 8 318 8.0 16.1 0.00 1.75 0.15 79 1011.9
20260506132007 8 305 8.0 16.1 0.00 1.75 0.15 80 1011.9
20260506131907 8 266 11.3 16.1 0.00 1.75 0.15 80 1011.9
20260506131807 8 285 6.4 14.5 0.00 1.75 0.15 81 1011.9
20260506131707 8 311 4.8 12.9 0.00 1.75 0.15 82 1011.9
20260506131607 8 293 6.4 12.9 0.00 1.75 0.15 83 1011.9
20260506131507 8 287 4.8 12.9 0.00 1.75 0.15 83 1011.9
20260506131407 8 318 4.8 12.9 0.00 1.75 0.15 83 1011.9
20260506131307 8 311 4.8 12.9 0.00 1.75 0.15 83 1011.9
20260506131207 8 338 9.7 12.9 0.00 1.75 0.15 83 1011.9
20260506131107 8 335 8.0 12.9 0.00 1.75 0.15 84 1011.9
20260506131007 8 262 8.0 11.3 0.00 1.75 0.15 84 1011.9
20260506130907 8 294 4.8 11.3 0.00 1.75 0.15 85 1011.9
20260506130807 8 338 8.0 11.3 0.00 1.75 0.15 85 1011.9
20260506130707 8 353 4.8 9.7 0.00 1.75 0.15 85 1011.9
20260506130607 8 329 3.2 9.7 0.00 1.75 0.15 85 1011.9
20260506130507 8 309 6.4 9.7 0.00 1.75 0.15 84 1011.9
20260506130407 8 0 8.0 9.7 0.00 1.75 0.15 85 1012.2
20260506130307 8 326 3.2 9.7 0.00 1.75 0.15 85 1011.9
20260506130207 8 273 3.2 14.5 0.00 1.75 0.15 86 1012.2
20260506130107 8 297 1.6 14.5 0.00 1.75 0.15 86 1012.2
20260506130007 8 248 3.2 14.5 0.00 1.75 0.15 86 1012.2
20260506125907 8 338 4.8 14.5 0.00 1.75 0.15 86 1011.9
20260506125807 8 291 4.8 14.5 0.00 1.75 0.15 86 1011.9
20260506125707 8 318 4.8 14.5 0.00 1.75 0.15 86 1011.9
20260506125607 8 302 6.4 14.5 0.00 1.75 0.15 86 1011.9
20260506125507 8 338 6.4 14.5 0.00 1.75 0.15 86 1011.9
20260506125407 8 318 4.8 14.5 0.00 1.75 0.15 86 1011.9
20260506125307 8 284 8.0 14.5 0.00 1.75 0.15 86 1011.9
20260506125207 8 312 6.4 9.7 0.00 1.75 0.15 87 1011.9
20260506125107 8 304 6.4 9.7 0.00 1.75 0.15 87 1012.2
20260506125007 8 319 4.8 9.7 0.00 1.75 0.15 87 1011.9
20260506124907 8 315 4.8 9.7 0.00 1.75 0.15 88 1012.2
20260506124807 8 290 1.6 11.3 0.00 1.75 0.15 88 1012.2
20260506124707 8 285 6.4 11.3 0.00 1.75 0.15 87 1012.2
20260506124607 8 277 1.6 11.3 0.00 1.75 0.15 88 1012.2
20260506124507 8 332 0.0 11.3 0.00 1.75 0.15 88 1011.9
20260506124407 7 300 4.8 11.3 0.00 1.75 0.15 88 1011.9
20260506124307 7 312 1.6 11.3 0.00 1.75 0.15 88 1011.9
20260506124207 7 32 3.2 11.3 0.00 1.75 0.15 88 1011.9
20260506124107 7 283 4.8 11.3 0.00 1.75 0.15 88 1011.9
20260506124007 7 314 6.4 11.3 0.00 1.75 0.15 88 1011.9
20260506123907 7 312 8.0 11.3 0.00 1.75 0.15 88 1011.9
20260506123807 7 330 6.4 11.3 0.00 1.75 0.15 89 1011.9
20260506123707 7 311 4.8 11.3 0.00 1.75 0.15 89 1011.9
20260506123607 7 298 4.8 11.3 0.00 1.75 0.15 89 1011.9
20260506123507 7 273 4.8 9.7 0.00 1.75 0.15 89 1011.6
20260506123407 7 321 4.8 9.7 0.00 1.75 0.15 89 1011.6
20260506123307 7 346 4.8 9.7 0.00 1.75 0.15 89 1011.6
20260506123207 7 322 6.4 9.7 0.00 1.75 0.15 89 1011.6
20260506123107 7 330 3.2 9.7 0.00 1.75 0.15 89 1011.6
20260506123007 7 332 4.8 9.7 0.00 1.75 0.15 89 1011.6
20260506122907 7 304 4.8 9.7 0.00 1.75 0.15 90 1011.6
20260506122807 7 336 6.4 9.7 0.00 1.75 0.15 90 1011.6
20260506122707 7 301 6.4 9.7 0.00 1.75 0.15 90 1011.2
20260506122607 7 287 4.8 11.3 0.00 1.75 0.15 90 1011.2
20260506122507 7 14 4.8 11.3 0.00 1.75 0.15 90 1011.2
20260506122407 7 270 6.4 11.3 0.00 1.75 0.15 90 1011.2
20260506122307 7 285 6.4 11.3 0.00 1.75 0.15 90 1011.2
20260506122207 7 315 4.8 11.3 0.00 1.75 0.15 90 1011.2
20260506122107 7 1 6.4 11.3 0.00 1.75 0.15 90 1011.2
20260506122007 7 316 3.2 11.3 0.00 1.75 0.15 90 1011.2
20260506121907 7 307 4.8 11.3 0.00 1.75 0.15 90 1011.2
20260506121807 7 342 3.2 11.3 0.00 1.75 0.15 90 1011.2
20260506121707 7 336 6.4 11.3 0.00 1.75 0.15 90 1011.2
20260506121607 7 349 8.0 11.3 0.00 1.75 0.15 90 1010.9
20260506121507 7 335 6.4 11.3 0.00 1.75 0.15 91 1010.9
20260506121407 7 322 4.8 11.3 0.00 1.75 0.15 91 1010.9
20260506121316 7 321 6.4 12.9 0.00 1.75 0.15 91 1010.9
20260506121207 7 338 8.0 12.9 0.00 1.75 0.15 91 1010.9
20260506121107 7 352 8.0 12.9 0.00 1.75 0.15 91 1011.2
20260506121007 7 325 3.2 12.9 0.00 1.75 0.15 91 1011.2
20260506120907 7 314 3.2 12.9 0.00 1.75 0.15 91 1011.2
20260506120807 7 312 3.2 12.9 0.00 1.75 0.15 91 1011.2
20260506120707 7 340 6.4 12.9 0.00 1.75 0.15 91 1011.2
20260506120607 7 316 8.0 12.9 0.00 1.75 0.15 91 1011.2
20260506120507 7 325 4.8 12.9 0.00 1.75 0.15 91 1011.2
20260506120407 7 349 8.0 12.9 0.00 1.75 0.15 91 1010.9
20260506120307 7 343 6.4 12.9 0.00 1.75 0.15 91 1010.9
20260506120207 7 314 3.2 11.3 0.00 1.75 0.15 91 1010.9
20260506120107 7 300 4.8 11.3 0.00 1.75 0.15 91 1010.9
20260506120007 7 325 6.4 11.3 0.00 1.75 0.15 91 1010.9
20260506115907 7 359 8.0 11.3 0.00 1.75 0.15 91 1010.9
20260506115807 7 332 8.0 11.3 0.00 1.75 0.15 91 1010.9
20260506115707 7 336 6.4 11.3 0.00 1.75 0.15 91 1011.2
20260506115607 7 328 4.8 11.3 0.00 1.75 0.15 91 1010.9
20260506115507 7 323 6.4 11.3 0.00 1.75 0.15 91 1010.9
20260506115407 7 333 6.4 11.3 0.00 1.75 0.15 91 1010.9
20260506115307 7 347 1.6 11.3 0.00 1.75 0.15 91 1010.9
20260506115207 7 314 8.0 11.3 0.00 1.75 0.15 91 1010.9
20260506115107 7 359 8.0 11.3 0.00 1.75 0.15 91 1010.9
20260506115007 7 328 6.4 9.7 0.00 1.75 0.15 91 1010.9
20260506114907 7 276 3.2 9.7 0.00 1.75 0.15 91 1010.9
20260506114807 7 357 3.2 9.7 0.00 1.75 0.15 91 1010.9
20260506114707 7 353 4.8 9.7 0.00 1.75 0.15 91 1010.9
20260506114607 7 323 6.4 9.7 0.00 1.75 0.15 91 1010.9
20260506114507 7 302 6.4 9.7 0.00 1.75 0.15 91 1010.9
20260506114407 7 278 4.8 8.0 0.00 1.75 0.15 91 1010.9
20260506114307 7 342 4.8 8.0 0.00 1.75 0.15 91 1010.9
20260506114207 7 333 4.8 8.0 0.00 1.75 0.15 91 1010.9
20260506114107 7 316 3.2 8.0 0.00 1.75 0.15 91 1010.9
20260506114007 7 314 3.2 8.0 0.00 1.75 0.15 91 1010.9
20260506113907 7 308 1.6 4.8 0.00 1.75 0.15 91 1010.9
20260506113807 7 312 0.0 4.8 0.00 1.75 0.15 91 1010.9
20260506113707 7 330 1.6 4.8 0.00 1.75 0.15 91 1010.9
20260506113607 7 308 1.6 6.4 0.00 1.75 0.15 91 1010.9
20260506113507 7 340 3.2 6.4 0.00 1.75 0.15 91 1010.9
20260506113407 7 271 0.0 6.4 0.00 1.75 0.15 91 1010.5
20260506113307 7 271 0.0 6.4 0.00 1.75 0.15 91 1010.5
20260506113207 7 271 0.0 6.4 0.00 1.75 0.15 91 1010.5
20260506113107 7 271 1.6 6.4 0.00 1.75 0.15 91 1010.5
20260506113007 7 336 3.2 8.0 0.00 1.75 0.15 91 1010.5
20260506112907 7 288 3.2 8.0 0.00 1.75 0.15 91 1010.5
20260506112807 7 294 4.8 8.0 0.00 1.75 0.15 91 1010.5
20260506112707 7 322 4.8 8.0 0.00 1.75 0.15 91 1010.5
20260506112607 7 335 4.8 8.0 0.00 1.75 0.15 91 1010.5
20260506112507 7 339 6.4 8.0 0.00 1.75 0.15 91 1010.5
20260506112407 7 300 3.2 8.0 0.00 1.75 0.15 91 1010.5
20260506112307 7 287 3.2 8.0 0.00 1.75 0.15 91 1010.5
20260506112207 7 332 6.4 9.7 0.00 1.75 0.15 91 1010.5
20260506112107 7 330 6.4 9.7 0.00 1.75 0.15 91 1010.2
20260506112007 7 343 6.4 9.7 0.00 1.75 0.15 91 1010.2
20260506111907 7 297 1.6 9.7 0.00 1.75 0.15 91 1010.2
20260506111807 7 339 3.2 9.7 0.00 1.75 0.15 91 1010.2
20260506111707 7 353 4.8 9.7 0.00 1.75 0.15 91 1010.2
20260506111607 7 3 3.2 9.7 0.00 1.75 0.15 91 1010.2
20260506111507 7 343 3.2 9.7 0.00 1.75 0.15 90 1010.2
20260506111407 7 11 3.2 11.3 0.00 1.75 0.15 90 1010.2
20260506111307 7 325 4.8 11.3 0.00 1.75 0.15 90 1010.2
20260506111207 7 325 6.4 11.3 0.00 1.75 0.15 90 1010.2
20260506111107 7 339 4.8 11.3 0.00 1.75 0.15 90 1010.2
20260506111007 7 347 1.6 11.3 0.00 1.75 0.15 90 1010.2
20260506110907 7 315 6.4 11.3 0.00 1.75 0.15 90 1010.2
20260506110807 7 291 6.4 11.3 0.00 1.75 0.15 90 1010.2
20260506110707 7 330 6.4 11.3 0.00 1.75 0.15 90 1010.2
20260506110607 7 328 6.4 11.3 0.00 1.75 0.15 90 1010.2
20260506110507 7 323 6.4 11.3 0.00 1.75 0.15 90 1010.2
20260506110407 7 332 4.8 9.7 0.00 1.75 0.15 90 1010.2
20260506110307 7 322 3.2 9.7 0.00 1.75 0.15 90 1010.2
20260506110207 7 349 6.4 9.7 0.00 1.75 0.15 90 1010.2
20260506110107 7 353 6.4 9.7 0.00 1.75 0.15 90 1010.2
20260506110007 7 349 4.8 9.7 0.00 1.75 0.15 90 1010.2
20260506105907 7 328 3.2 11.3 0.00 1.75 0.15 90 1010.2
20260506105807 7 312 3.2 12.9 0.00 1.75 0.15 90 1010.2
20260506105707 7 339 6.4 12.9 0.00 1.75 0.15 89 1010.2
20260506105607 7 353 4.8 12.9 0.00 1.75 0.15 90 1010.2
20260506105507 7 277 3.2 12.9 0.00 1.75 0.15 90 1010.2
20260506105407 7 330 3.2 12.9 0.00 1.75 0.15 90 1010.2
20260506105307 7 321 3.2 12.9 0.00 1.75 0.15 90 1010.2
20260506105207 7 309 4.8 12.9 0.00 1.75 0.15 89 1010.2
20260506105107 7 340 6.4 12.9 0.00 1.75 0.15 89 1010.2
20260506105007 7 329 6.4 12.9 0.00 1.75 0.15 89 1010.2
20260506104907 7 340 9.7 12.9 0.00 1.75 0.15 90 1010.2
20260506104807 7 319 3.2 9.7 0.00 1.75 0.15 90 1010.2
20260506104707 7 323 6.4 9.7 0.00 1.75 0.15 90 1010.2
20260506104607 7 4 6.4 9.7 0.00 1.75 0.15 90 1010.2
20260506104507 7 15 6.4 9.7 0.00 1.75 0.15 90 1010.2
20260506104407 7 349 6.4 8.0 0.00 1.75 0.15 90 1010.2
20260506104307 7 347 4.8 8.0 0.00 1.75 0.15 90 1010.2
20260506104207 7 338 6.4 11.3 0.00 1.75 0.15 90 1010.2
20260506104107 7 338 4.8 11.3 0.00 1.75 0.15 90 1010.2
20260506104007 7 330 6.4 11.3 0.00 1.75 0.15 90 1009.9
20260506103907 7 335 6.4 11.3 0.00 1.75 0.15 90 1009.9
20260506103807 7 354 3.2 11.3 0.00 1.75 0.15 90 1009.9
20260506103707 7 347 3.2 11.3 0.00 1.75 0.15 90 1009.9
20260506103607 7 339 3.2 11.3 0.00 1.75 0.15 90 1010.2
20260506103507 7 346 4.8 11.3 0.00 1.75 0.15 90 1009.9
20260506103407 7 314 4.8 11.3 0.00 1.75 0.15 90 1009.9
20260506103307 7 359 8.0 11.3 0.00 1.75 0.15 89 1009.9
20260506103207 7 356 4.8 11.3 0.00 1.75 0.15 90 1009.9
20260506103107 7 354 4.8 11.3 0.00 1.75 0.15 90 1009.9
20260506103007 7 3 6.4 11.3 0.00 1.75 0.15 90 1009.9
20260506102907 7 346 6.4 11.3 0.00 1.75 0.15 90 1009.9
20260506102807 7 0 6.4 11.3 0.00 1.75 0.15 90 1009.9
20260506102707 6 323 9.7 11.3 0.00 1.75 0.15 90 1009.9
20260506102607 7 347 8.0 11.3 0.00 1.75 0.15 90 1009.9
20260506102507 7 328 1.6 11.3 0.00 1.75 0.15 90 1010.2
20260506102407 7 347 3.2 11.3 0.00 1.75 0.15 90 1010.2
20260506102307 7 38 3.2 11.3 0.00 1.75 0.15 90 1010.2
20260506102207 7 319 3.2 11.3 0.00 1.75 0.15 90 1010.2
20260506102107 7 347 3.2 11.3 0.00 1.75 0.15 90 1009.9
20260506102007 6 316 8.0 11.3 0.00 1.75 0.15 89 1009.9
20260506101907 7 3 8.0 11.3 0.00 1.75 0.15 90 1010.2
20260506101807 7 316 1.6 9.7 0.00 1.75 0.15 90 1010.2
20260506101707 7 305 1.6 14.5 0.00 1.75 0.15 90 1010.2
20260506101607 7 318 3.2 14.5 0.00 1.75 0.15 90 1010.2
20260506101507 7 333 3.2 14.5 0.00 1.75 0.15 90 1010.2
20260506101407 7 300 3.2 14.5 0.00 1.75 0.15 89 1010.2
20260506101307 6 349 6.4 14.5 0.00 1.75 0.15 89 1009.9
20260506101207 6 347 8.0 14.5 0.00 1.75 0.15 89 1009.9
20260506101107 7 0 4.8 14.5 0.00 1.75 0.15 89 1009.9
20260506101007 6 314 6.4 14.5 0.00 1.75 0.15 89 1009.9
20260506100907 6 352 4.8 14.5 0.00 1.75 0.15 89 1009.9
20260506100807 6 340 9.7 14.5 0.00 1.75 0.15 89 1009.9
20260506100707 6 336 6.4 11.3 0.00 1.75 0.15 89 1009.9
20260506100607 6 338 6.4 12.9 0.00 1.75 0.15 89 1009.5
20260506100507 6 354 8.0 12.9 0.00 1.75 0.15 90 1009.5
20260506100407 6 329 4.8 14.5 0.00 1.75 0.15 90 1009.5
20260506100307 6 350 6.4 14.5 0.00 1.75 0.15 89 1009.5
20260506100207 6 347 6.4 14.5 0.00 1.75 0.15 90 1009.5
20260506100107 6 359 6.4 14.5 0.00 1.75 0.15 90 1009.5
20260506100007 6 8 6.4 14.5 0.00 1.75 0.15 89 1009.5
20260506095907 6 18 6.4 16.1 0.00 1.75 0.15 90 1009.2
20260506095807 6 4 8.0 16.1 0.00 1.75 0.15 89 1009.5
20260506095707 6 15 9.7 16.1 0.00 1.75 0.15 90 1009.5
20260506095607 6 359 9.7 16.1 0.00 1.75 0.15 90 1009.5
20260506095507 6 4 9.7 16.1 0.00 1.75 0.15 90 1009.5
20260506095407 6 359 4.8 16.1 0.00 1.75 0.15 90 1009.5
20260506095307 6 350 6.4 16.1 0.00 1.75 0.15 90 1009.5
20260506095207 6 350 6.4 16.1 0.00 1.75 0.15 90 1009.5
20260506095107 6 352 6.4 16.1 0.00 1.75 0.15 90 1009.5
20260506095007 6 7 8.0 16.1 0.00 1.75 0.15 90 1009.5
20260506094907 6 329 6.4 16.1 0.00 1.75 0.15 90 1009.5
20260506094807 6 3 6.4 16.1 0.00 1.75 0.15 90 1009.5
20260506094707 7 49 1.6 16.1 0.00 1.75 0.15 90 1009.5
20260506094607 7 35 8.0 16.1 0.00 1.75 0.15 90 1009.5
20260506094507 6 343 9.7 12.9 0.00 1.75 0.15 91 1009.5
20260506094407 6 332 6.4 12.9 0.00 1.75 0.15 91 1009.9
20260506094307 7 359 4.8 12.9 0.00 1.75 0.15 91 1009.9
20260506094207 6 338 9.7 12.9 0.00 1.75 0.15 91 1009.9
20260506094107 6 343 8.0 12.9 0.00 1.75 0.15 91 1009.9
20260506094007 7 336 8.0 12.9 0.00 1.75 0.15 91 1009.9
20260506093907 7 326 4.8 12.9 0.00 1.75 0.15 91 1009.9
20260506093807 7 284 3.2 14.5 0.00 1.75 0.15 91 1009.9
20260506093707 7 23 3.2 14.5 0.00 1.75 0.15 91 1009.9
20260506093607 6 338 8.0 14.5 0.00 1.75 0.15 91 1009.5
20260506093507 6 338 9.7 14.5 0.00 1.75 0.15 91 1009.5
20260506093407 6 6 9.7 14.5 0.00 1.75 0.15 91 1009.5
20260506093307 6 330 6.4 14.5 0.00 1.75 0.15 91 1009.5
20260506093207 6 338 6.4 14.5 0.00 1.75 0.15 91 1009.5
20260506093107 6 332 6.4 16.1 0.00 1.75 0.15 91 1009.5
20260506093007 6 21 6.4 16.1 0.00 1.75 0.15 91 1009.5
20260506092907 6 32 8.0 16.1 0.00 1.75 0.15 91 1009.2
20260506092807 6 11 8.0 16.1 0.00 1.75 0.15 91 1009.2
20260506092707 6 14 9.7 16.1 0.00 1.75 0.15 91 1009.2
20260506092607 6 349 8.0 16.1 0.00 1.75 0.15 91 1009.5
20260506092507 6 346 8.0 16.1 0.00 1.75 0.15 91 1009.2
20260506092407 6 323 9.7 16.1 0.00 1.75 0.15 91 1009.2
20260506092307 6 4 8.0 16.1 0.00 1.75 0.15 91 1009.2
20260506092207 6 21 9.7 16.1 0.00 1.75 0.15 91 1009.5
20260506092107 6 339 6.4 16.1 0.00 1.75 0.15 91 1009.5
20260506092007 6 4 6.4 16.1 0.00 1.75 0.15 91 1009.5
20260506091907 6 342 6.4 16.1 0.00 1.75 0.15 91 1009.5
20260506091807 6 6 6.4 16.1 0.00 1.75 0.15 91 1009.5
20260506091707 6 359 8.0 16.1 0.00 1.75 0.15 91 1009.2
20260506091607 6 349 8.0 16.1 0.00 1.75 0.15 91 1009.2
20260506091507 6 326 6.4 16.1 0.00 1.75 0.15 91 1009.2
20260506091407 6 319 8.0 16.1 0.00 1.75 0.15 91 1008.8
20260506091307 6 319 11.3 16.1 0.00 1.75 0.15 91 1008.8
20260506091207 6 350 11.3 16.1 0.00 1.75 0.15 91 1008.8
20260506091107 6 339 9.7 16.1 0.00 1.75 0.15 91 1008.8
20260506091007 6 3 9.7 16.1 0.00 1.75 0.15 91 1008.8
20260506090907 6 349 9.7 16.1 0.00 1.75 0.15 91 1008.8
20260506090807 6 13 11.3 16.1 0.00 1.75 0.15 91 1008.8
20260506090707 6 8 6.4 12.9 0.00 1.75 0.15 91 1008.8
20260506090607 6 326 4.8 12.9 0.00 1.75 0.15 92 1008.8
20260506090507 6 63 6.4 12.9 0.00 1.75 0.15 92 1008.8
20260506090407 6 10 6.4 12.9 0.00 1.75 0.15 92 1009.2
20260506090307 6 343 6.4 12.9 0.00 1.75 0.15 92 1009.2
20260506090207 6 7 8.0 12.9 0.00 1.75 0.15 91 1009.2
20260506090107 6 345 8.0 12.9 0.00 1.75 0.15 92 1009.2
20260506090007 6 14 9.7 12.9 0.00 1.75 0.15 92 1009.2
20260506085907 6 359 9.7 14.5 0.03 1.75 0.15 92 1009.2
20260506085807 6 329 8.0 14.5 0.03 1.75 0.15 92 1009.2
20260506085707 6 345 6.4 14.5 0.03 1.75 0.15 92 1009.2
20260506085607 6 359 8.0 14.5 0.03 1.75 0.15 92 1009.2
20260506085507 6 342 8.0 14.5 0.03 1.75 0.15 92 1009.2
20260506085407 6 339 8.0 14.5 0.03 1.75 0.15 92 1009.2
20260506085307 6 14 4.8 14.5 0.03 1.75 0.15 92 1009.2
20260506085207 6 3 8.0 14.5 0.03 1.75 0.15 92 1009.2
20260506085107 6 321 8.0 14.5 0.03 1.75 0.15 92 1009.2
20260506085007 6 343 8.0 14.5 0.03 1.75 0.15 92 1008.8
20260506084907 6 340 4.8 12.9 0.03 1.75 0.15 92 1008.8
20260506084807 6 357 4.8 12.9 0.03 1.75 0.15 92 1008.8
20260506084707 7 14 4.8 12.9 0.03 1.75 0.15 92 1008.8
20260506084607 6 347 1.6 12.9 0.03 1.75 0.15 92 1008.8
20260506084507 6 28 4.8 12.9 0.03 1.75 0.15 92 1008.8
20260506084407 6 352 6.4 12.9 0.03 1.75 0.15 92 1008.8
20260506084307 6 321 6.4 12.9 0.03 1.75 0.15 92 1008.8
20260506084207 6 335 9.7 12.9 0.03 1.75 0.15 92 1008.8
20260506084107 6 342 8.0 12.9 0.03 1.75 0.15 93 1008.8
20260506084007 6 359 6.4 12.9 0.03 1.75 0.15 93 1008.5
20260506083907 6 357 6.4 12.9 0.03 1.75 0.15 93 1008.5
20260506083807 7 11 6.4 12.9 0.03 1.75 0.15 93 1008.5
20260506083707 6 359 4.8 12.9 0.03 1.75 0.15 93 1008.5
20260506083607 6 333 8.0 12.9 0.03 1.75 0.15 92 1008.5
20260506083507 6 11 8.0 12.9 0.03 1.75 0.15 92 1008.5
20260506083407 6 359 6.4 12.9 0.03 1.75 0.15 93 1008.5
20260506083307 6 3 6.4 12.9 0.03 1.75 0.15 92 1008.5
20260506083207 6 11 8.0 12.9 0.03 1.75 0.15 92 1008.5
20260506083107 6 13 8.0 12.9 0.03 1.75 0.15 92 1008.5
20260506083007 7 359 6.4 12.9 0.03 1.75 0.15 92 1008.5
20260506082907 7 356 4.8 12.9 0.03 1.75 0.15 92 1008.5
20260506082807 6 62 6.4 12.9 0.03 1.75 0.15 92 1008.5
20260506082707 6 353 8.0 14.5 0.03 1.75 0.15 92 1008.5
20260506082607 7 66 6.4 14.5 0.03 1.75 0.15 92 1008.5
20260506082507 6 6 6.4 14.5 0.03 1.75 0.15 92 1008.5
20260506082407 7 18 8.0 14.5 0.03 1.75 0.15 92 1008.5
20260506082307 6 333 8.0 14.5 0.03 1.75 0.15 92 1008.8
20260506082207 7 0 6.4 14.5 0.03 1.75 0.15 92 1008.8
20260506082107 7 20 4.8 14.5 0.03 1.75 0.15 92 1008.8
20260506082007 7 21 6.4 16.1 0.03 1.75 0.15 92 1008.8
20260506081907 7 24 6.4 16.1 0.03 1.75 0.15 92 1008.8
20260506081807 7 20 8.0 16.1 0.03 1.75 0.15 92 1009.2
20260506081707 7 354 6.4 16.1 0.03 1.75 0.15 92 1009.2
20260506081607 7 4 8.0 16.1 0.03 1.75 0.15 92 1009.2
20260506081507 7 356 8.0 16.1 0.03 1.75 0.15 92 1009.2
20260506081407 7 46 8.0 16.1 0.03 1.75 0.15 92 1009.2
20260506081307 7 335 9.7 16.1 0.03 1.75 0.15 92 1009.2
20260506081207 6 333 9.7 16.1 0.03 1.75 0.15 92 1009.2
20260506081107 6 354 9.7 16.1 0.03 1.75 0.15 92 1009.2
20260506081007 7 359 8.0 16.1 0.03 1.75 0.15 92 1009.2
20260506080907 7 359 6.4 11.3 0.03 1.75 0.15 92 1009.5
20260506080807 7 350 6.4 11.3 0.03 1.75 0.15 93 1009.5
20260506080707 7 336 4.8 11.3 0.03 1.75 0.15 93 1009.5
20260506080607 7 308 4.8 11.3 0.03 1.75 0.15 92 1009.5
20260506080507 7 309 8.0 11.3 0.03 1.75 0.15 92 1009.2
20260506080407 7 309 8.0 11.3 0.03 1.75 0.15 92 1009.2
20260506080307 7 17 6.4 11.3 0.03 1.75 0.15 93 1009.2
20260506080207 7 359 6.4 14.5 0.03 1.75 0.15 93 1009.2
20260506080107 7 359 6.4 14.5 0.03 1.75 0.15 92 1009.2
20260506073507 7 30 4.8 11.3 0.00 1.75 0.13 93 1008.8
20260506073407 7 321 8.0 11.3 0.00 1.75 0.13 93 1008.8
20260506073307 7 25 8.0 11.3 0.00 1.75 0.13 93 1008.8
20260506073207 7 3 8.0 12.9 0.00 1.75 0.13 93 1008.8
20260506073107 7 52 6.4 12.9 0.00 1.75 0.13 93 1008.8
20260506073007 7 65 6.4 12.9 0.00 1.75 0.13 93 1008.8
20260506072907 7 356 8.0 12.9 0.00 1.75 0.13 93 1008.8
20260506072807 7 322 6.4 12.9 0.00 1.75 0.13 93 1008.8
20260506072707 7 52 4.8 12.9 0.00 1.75 0.13 93 1008.8
20260506072607 7 21 4.8 17.7 0.00 1.75 0.13 93 1008.5
20260506072507 7 39 6.4 19.3 0.00 1.75 0.13 93 1008.5
20260506072407 7 349 8.0 19.3 0.00 1.75 0.13 93 1008.5
20260506072307 7 23 6.4 19.3 0.00 1.75 0.13 93 1008.5
20260506072207 7 353 9.7 19.3 0.00 1.75 0.13 93 1008.5
20260506072107 7 1 6.4 19.3 0.00 1.75 0.13 93 1008.5
20260506072007 7 315 6.4 19.3 0.00 1.75 0.13 93 1008.5
20260506071907 7 353 4.8 19.3 0.00 1.75 0.13 93 1008.5
20260506071807 7 8 6.4 19.3 0.00 1.75 0.13 93 1008.5
20260506071707 7 338 11.3 19.3 0.00 1.75 0.13 93 1008.5
20260506071607 6 359 14.5 19.3 0.00 1.75 0.13 93 1008.5
20260506071507 7 349 9.7 16.1 0.00 1.75 0.13 94 1008.5
20260506071407 7 343 8.0 16.1 0.00 1.75 0.13 94 1008.5
20260506071307 7 328 12.9 16.1 0.00 1.75 0.13 94 1008.5
20260506071207 7 359 11.3 16.1 0.00 1.75 0.13 94 1008.5
20260506071107 7 342 9.7 16.1 0.00 1.75 0.13 94 1008.5
20260506071007 7 11 9.7 17.7 0.03 1.75 0.13 94 1008.5
20260506070907 7 359 11.3 17.7 0.03 1.75 0.13 94 1008.5
20260506070807 7 312 11.3 17.7 0.03 1.75 0.13 94 1008.5
20260506070707 7 338 11.3 17.7 0.03 1.75 0.13 95 1008.5
20260506070607 7 322 8.0 17.7 0.03 1.75 0.13 95 1008.5
20260506070507 7 347 11.3 17.7 0.03 1.75 0.13 95 1008.5
20260506070407 7 4 9.7 17.7 0.03 1.75 0.13 95 1008.5
20260506070307 7 343 6.4 17.7 0.03 1.75 0.13 95 1008.5
20260506070207 7 350 8.0 17.7 0.03 1.75 0.13 95 1008.5
20260506070107 7 343 11.3 17.7 0.03 1.75 0.13 95 1008.5
20260506062507 7 335 11.3 17.7 0.05 1.75 0.13 95 1009.2
20260506062407 7 332 8.0 17.7 0.05 1.75 0.13 95 1009.2
20260506062307 7 309 11.3 17.7 0.05 1.75 0.13 95 1009.2
20260506062207 7 1 11.3 17.7 0.05 1.75 0.13 95 1009.2
20260506062107 7 347 9.7 16.1 0.05 1.75 0.13 95 1009.2
20260506062007 7 332 12.9 16.1 0.05 1.75 0.13 95 1009.2
20260506061907 7 359 11.3 16.1 0.05 1.75 0.13 95 1009.2
20260506061807 7 359 11.3 16.1 0.05 1.75 0.13 95 1009.2
20260506061707 7 352 6.4 12.9 0.05 1.75 0.13 95 1009.2
20260506061607 7 353 6.4 12.9 0.05 1.75 0.13 95 1009.2
20260506061507 7 0 9.7 12.9 0.05 1.75 0.13 95 1008.8
20260506061407 7 353 6.4 12.9 0.05 1.75 0.13 95 1008.8
20260506061307 7 349 4.8 12.9 0.05 1.75 0.13 95 1008.8
20260506061207 7 347 4.8 12.9 0.05 1.75 0.13 95 1008.8
20260506061107 7 357 4.8 12.9 0.05 1.75 0.13 95 1008.8
20260506061007 7 350 6.4 12.9 0.03 1.75 0.10 95 1009.2
20260506060907 7 17 3.2 12.9 0.03 1.75 0.10 95 1009.2
20260506060807 7 11 6.4 12.9 0.03 1.75 0.10 95 1009.2
20260506060707 7 345 6.4 12.9 0.03 1.75 0.10 95 1009.2
20260506060607 7 3 6.4 12.9 0.03 1.75 0.10 95 1009.2
20260506060507 6 354 9.7 12.9 0.03 1.75 0.10 95 1009.2
20260506060407 7 352 6.4 12.9 0.03 1.75 0.10 95 1009.2
20260506060307 7 321 3.2 11.3 0.03 1.75 0.10 95 1009.2
20260506060207 7 24 4.8 11.3 0.03 1.75 0.10 95 1009.2
20260506060107 7 11 6.4 11.3 0.03 1.75 0.10 95 1009.2
20260506051407 6 11 9.7 14.5 0.08 1.75 0.08 95 1009.2
20260506051307 7 346 8.0 12.9 0.08 1.75 0.08 95 1009.2
20260506051207 7 13 6.4 12.9 0.08 1.75 0.08 95 1009.2
20260506051107 7 13 6.4 12.9 0.08 1.75 0.08 95 1009.2
20260506051007 7 338 6.4 12.9 0.08 1.75 0.08 95 1009.2
20260506050907 7 340 8.0 12.9 0.08 1.75 0.08 95 1009.2
20260506050807 7 357 6.4 16.1 0.08 1.75 0.08 95 1009.2
20260506050707 7 328 8.0 16.1 0.08 1.75 0.08 95 1009.2
20260506050607 7 4 3.2 16.1 0.08 1.75 0.08 95 1009.2
20260506050507 7 59 1.6 16.1 0.08 1.75 0.08 95 1009.2
20260506050407 7 359 4.8 16.1 0.08 1.75 0.08 95 1009.2
20260506050307 7 340 4.8 16.1 0.08 1.75 0.08 95 1009.2
20260506050207 7 315 3.2 16.1 0.08 1.75 0.08 95 1009.2
20260506050107 7 7 4.8 16.1 0.08 1.75 0.08 95 1009.2
20260506045107 7 340 8.0 22.5 0.03 1.75 0.03 95 1009.2
20260506045007 7 8 11.3 22.5 0.03 1.75 0.03 95 1009.2
20260506044907 7 350 11.3 22.5 0.03 1.75 0.03 95 1009.2
20260506044807 7 17 14.5 22.5 0.03 1.75 0.03 95 1009.2
20260506044707 7 321 14.5 22.5 0.03 1.75 0.03 95 1009.2
20260506044607 7 353 8.0 17.7 0.03 1.75 0.03 95 1009.2
20260506044507 7 336 12.9 16.1 0.03 1.75 0.03 95 1009.2
20260506044407 7 338 3.2 16.1 0.03 1.75 0.03 95 1009.2
20260506044307 7 17 4.8 16.1 0.03 1.75 0.03 95 1009.2
20260506044207 7 359 11.3 17.7 0.05 1.75 0.03 95 1009.2
20260506044107 7 353 9.7 17.7 0.05 1.75 0.03 95 1009.2
20260506044007 7 0 8.0 17.7 0.05 1.75 0.03 95 1009.2
20260506043907 7 15 9.7 17.7 0.05 1.75 0.03 95 1009.2
20260506043807 7 13 8.0 17.7 0.05 1.75 0.03 95 1009.2
20260506043707 7 356 8.0 17.7 0.05 1.75 0.03 95 1008.8
20260506043607 7 17 8.0 17.7 0.05 1.75 0.03 95 1009.2
20260506043507 7 359 6.4 17.7 0.05 1.75 0.03 95 1008.8
20260506043407 7 38 6.4 17.7 0.05 1.75 0.03 95 1008.8
20260506043307 7 27 9.7 17.7 0.05 1.75 0.03 95 1008.8
20260506043207 8 49 6.4 17.7 0.05 1.75 0.03 95 1008.8
20260506043107 8 34 3.2 12.9 0.05 1.75 0.03 95 1008.8
20260506043007 8 39 4.8 12.9 0.05 1.75 0.03 95 1008.8
20260506042907 8 352 6.4 12.9 0.05 1.75 0.03 95 1008.5
20260506042807 8 14 3.2 16.1 0.05 1.75 0.03 95 1008.5
20260506042707 8 35 3.2 16.1 0.05 1.75 0.03 95 1008.5
20260506042607 8 13 6.4 16.1 0.05 1.75 0.03 95 1008.5
20260506042507 8 7 9.7 16.1 0.05 1.75 0.03 95 1008.5
20260506042407 8 75 8.0 16.1 0.05 1.75 0.03 95 1008.5
20260506042307 8 30 6.4 16.1 0.05 1.75 0.03 95 1008.5
20260506042207 8 13 6.4 16.1 0.08 1.75 0.03 95 1008.5
20260506042107 8 17 4.8 19.3 0.08 1.75 0.03 95 1008.5
20260506042007 8 6 4.8 19.3 0.08 1.75 0.03 95 1008.5
20260506041907 8 25 6.4 19.3 0.05 1.75 0.00 95 1008.5
20260506041807 8 11 11.3 19.3 0.05 1.75 0.00 95 1008.5
20260506041707 8 359 9.7 19.3 0.05 1.75 0.00 95 1008.5
20260506041607 8 41 8.0 19.3 0.05 1.75 0.00 95 1008.5
20260506041507 8 41 8.0 19.3 0.05 1.75 0.00 95 1008.5
20260506041407 8 49 4.8 19.3 0.05 1.75 0.00 95 1008.5
20260506041307 8 23 8.0 19.3 0.05 1.75 0.00 95 1008.5
20260506041207 8 359 11.3 19.3 0.05 1.75 0.00 95 1008.5
20260506041107 8 11 8.0 17.7 0.05 1.75 0.00 95 1008.5
20260506041007 8 6 9.7 17.7 0.05 1.75 0.00 95 1008.5
20260506040907 8 347 11.3 17.7 0.05 1.75 0.00 95 1008.5
20260506040807 8 18 14.5 17.7 0.05 1.75 0.00 95 1008.5
20260506040707 8 15 11.3 17.7 0.05 1.75 0.00 95 1008.5
20260506040607 8 352 6.4 17.7 0.05 1.75 0.00 95 1008.5
20260506040507 8 0 9.7 17.7 0.05 1.75 0.00 95 1008.5
20260506040407 8 345 6.4 17.7 0.05 1.75 0.00 95 1008.5
20260506040307 8 23 8.0 17.7 0.05 1.75 0.00 95 1008.5
20260506040207 8 332 9.7 17.7 0.05 1.75 0.00 95 1008.8
20260506040107 8 347 9.7 16.1 0.08 1.75 0.00 95 1008.8
20260506040007 8 352 4.8 16.1 0.08 1.75 0.00 95 1008.8
20260506035907 8 11 4.8 16.1 0.08 0.00 1.75 95 1008.8
20260506035807 8 354 8.0 16.1 0.08 0.00 1.75 95 1008.8
20260506035707 8 7 8.0 16.1 0.08 0.00 1.75 95 1009.2
20260506035607 8 3 4.8 16.1 0.08 0.00 1.75 95 1009.2
20260506035507 8 4 9.7 16.1 0.08 0.00 1.75 95 1009.2
20260506035407 8 339 11.3 16.1 0.08 0.00 1.75 95 1009.2
20260506035307 8 3 8.0 16.1 0.08 0.00 1.75 95 1009.2
20260506035207 8 349 11.3 16.1 0.08 0.00 1.75 95 1009.2
20260506035107 8 3 9.7 14.5 0.08 0.00 1.75 95 1009.2
20260506035007 8 339 9.7 14.5 0.08 0.00 1.75 95 1009.2
20260506034907 8 8 6.4 14.5 0.08 0.00 1.75 95 1009.2
20260506034807 8 18 8.0 14.5 0.08 0.00 1.75 95 1009.2
20260506034707 8 6 11.3 16.1 0.08 0.00 1.75 95 1009.2
20260506034607 8 14 9.7 16.1 0.08 0.00 1.75 95 1009.2
20260506034507 8 342 6.4 16.1 0.08 0.00 1.75 95 1009.2
20260506034407 8 353 11.3 16.1 0.08 0.00 1.75 95 1008.8
20260506034307 8 359 11.3 16.1 0.08 0.00 1.75 95 1008.8
20260506034207 8 314 8.0 16.1 0.05 0.00 1.73 95 1008.8
20260506034107 8 318 8.0 16.1 0.05 0.00 1.73 95 1008.8
20260506034007 8 325 8.0 16.1 0.05 0.00 1.73 95 1008.5
20260506033907 8 20 8.0 16.1 0.05 0.00 1.73 95 1008.5
20260506033807 8 15 11.3 16.1 0.05 0.00 1.73 95 1008.5
20260506033707 8 350 8.0 16.1 0.05 0.00 1.73 95 1008.5
20260506033607 8 20 11.3 16.1 0.05 0.00 1.73 95 1008.5
20260506033507 8 346 9.7 16.1 0.05 0.00 1.73 95 1008.5
20260506033407 8 338 8.0 16.1 0.05 0.00 1.73 95 1008.5
20260506033307 8 11 9.7 16.1 0.05 0.00 1.73 95 1008.5
20260506033207 8 336 8.0 16.1 0.05 0.00 1.73 95 1008.5
20260506033107 8 339 6.4 14.5 0.05 0.00 1.73 95 1008.5
20260506033007 8 354 8.0 14.5 0.05 0.00 1.73 95 1008.5
20260506032907 8 38 6.4 14.5 0.05 0.00 1.73 95 1008.5
20260506032807 8 346 4.8 14.5 0.05 0.00 1.73 95 1008.5
20260506032707 8 76 8.0 14.5 0.05 0.00 1.73 95 1008.5
20260506032607 8 0 9.7 14.5 0.05 0.00 1.73 95 1008.5
20260506032507 8 352 11.3 16.1 0.05 0.00 1.73 95 1008.5
20260506032407 8 353 8.0 16.1 0.05 0.00 1.73 95 1008.5
20260506032307 8 8 8.0 16.1 0.05 0.00 1.73 95 1008.5
20260506032207 8 359 4.8 16.1 0.03 0.00 1.70 95 1008.5
20260506032107 8 0 6.4 16.1 0.03 0.00 1.70 95 1008.5
20260506032007 8 8 9.7 16.1 0.03 0.00 1.70 95 1008.5
20260506031907 8 1 8.0 16.1 0.03 0.00 1.70 95 1008.5
20260506031807 8 359 9.7 17.7 0.03 0.00 1.70 95 1008.5
20260506031707 8 31 9.7 17.7 0.03 0.00 1.70 95 1008.5
20260506031607 8 11 9.7 17.7 0.03 0.00 1.70 95 1008.5
20260506031507 8 18 4.8 17.7 0.03 0.00 1.70 95 1008.5
20260506031407 8 23 8.0 17.7 0.03 0.00 1.70 95 1008.5
20260506031307 8 17 9.7 17.7 0.03 0.00 1.70 95 1008.5
20260506031207 8 6 8.0 17.7 0.03 0.00 1.70 95 1008.5
20260506031107 8 346 9.7 20.9 0.03 0.00 1.70 95 1008.5
20260506031007 8 359 9.7 20.9 0.03 0.00 1.70 95 1008.5
20260506030907 8 352 11.3 20.9 0.03 0.00 1.70 95 1008.5
20260506030807 8 346 12.9 20.9 0.03 0.00 1.70 95 1008.5
20260506030707 8 3 6.4 20.9 0.03 0.00 1.70 95 1008.5
20260506030607 8 8 11.3 20.9 0.03 0.00 1.70 95 1008.5
20260506030507 8 316 8.0 20.9 0.03 0.00 1.70 95 1008.5
20260506030407 8 325 9.7 20.9 0.03 0.00 1.70 95 1008.5
20260506030307 8 1 8.0 20.9 0.03 0.00 1.70 95 1008.5
20260506030207 8 27 12.9 20.9 0.03 0.00 1.70 95 1008.5
20260506030107 8 6 8.0 16.1 0.00 0.00 1.68 95 1008.5
20260506030007 8 359 9.7 14.5 0.00 0.00 1.68 95 1008.5
20260506025907 8 332 9.7 16.1 0.03 0.00 1.68 95 1008.5
20260506025807 8 4 8.0 16.1 0.03 0.00 1.68 95 1008.5
20260506025707 8 346 6.4 16.1 0.03 0.00 1.68 95 1008.5
20260506025607 8 326 4.8 16.1 0.03 0.00 1.68 95 1008.5
20260506025507 8 339 8.0 16.1 0.03 0.00 1.68 95 1008.5
20260506025407 8 345 6.4 16.1 0.03 0.00 1.68 95 1008.5
20260506025307 8 359 3.2 16.1 0.03 0.00 1.68 95 1008.5
20260506025207 8 17 3.2 16.1 0.03 0.00 1.68 95 1008.5
20260506025107 8 42 3.2 16.1 0.03 0.00 1.68 95 1008.5
20260506025007 8 10 8.0 16.1 0.03 0.00 1.68 95 1008.5
20260506024907 8 7 8.0 12.9 0.03 0.00 1.68 95 1008.5
20260506024807 8 58 8.0 12.9 0.03 0.00 1.68 95 1008.5
20260506024707 8 52 3.2 12.9 0.03 0.00 1.68 95 1008.5
20260506024607 8 340 8.0 12.9 0.03 0.00 1.68 95 1008.5
20260506024507 8 48 6.4 12.9 0.03 0.00 1.68 95 1008.5
20260506024407 8 56 3.2 12.9 0.03 0.00 1.68 95 1008.5
20260506024307 8 55 4.8 12.9 0.03 0.00 1.68 95 1008.5
20260506024207 8 338 3.2 12.9 0.03 0.00 1.68 95 1008.5
20260506024107 8 60 4.8 12.9 0.03 0.00 1.68 95 1008.5
20260506024007 8 3 3.2 12.9 0.03 0.00 1.68 95 1008.5
20260506023907 8 359 0.0 11.3 0.03 0.00 1.68 95 1008.5
20260506023807 8 352 1.6 11.3 0.03 0.00 1.68 95 1008.5
20260506023707 8 18 1.6 11.3 0.03 0.00 1.68 95 1008.5
20260506023607 8 359 8.0 11.3 0.03 0.00 1.68 95 1008.5
20260506023507 8 76 6.4 12.9 0.03 0.00 1.68 95 1008.5
20260506023407 8 31 0.0 12.9 0.03 0.00 1.68 95 1008.5
20260506023307 8 62 3.2 12.9 0.03 0.00 1.68 95 1008.8
20260506023207 8 30 4.8 14.5 0.03 0.00 1.68 95 1008.8
20260506023107 8 37 4.8 14.5 0.03 0.00 1.68 95 1008.8
20260506023007 8 349 8.0 14.5 0.03 0.00 1.68 95 1008.8
20260506022907 8 359 6.4 14.5 0.03 0.00 1.68 95 1008.8
20260506022807 8 18 4.8 14.5 0.03 0.00 1.68 95 1008.8
20260506022707 8 30 4.8 14.5 0.03 0.00 1.68 95 1008.8
20260506022607 8 72 8.0 14.5 0.03 0.00 1.68 95 1008.8
20260506022507 8 15 6.4 14.5 0.03 0.00 1.68 95 1008.8
20260506022407 8 3 6.4 14.5 0.03 0.00 1.68 95 1008.8
20260506022307 8 353 8.0 14.5 0.03 0.00 1.68 95 1008.8
20260506022207 8 27 4.8 14.5 0.03 0.00 1.68 95 1008.8
20260506022107 8 8 3.2 14.5 0.05 0.00 1.68 95 1008.8
20260506022007 8 359 6.4 14.5 0.05 0.00 1.68 95 1009.2
20260506021907 8 35 8.0 14.5 0.05 0.00 1.68 95 1008.8
20260506021807 8 4 8.0 14.5 0.05 0.00 1.68 95 1008.8
20260506021707 8 32 6.4 14.5 0.05 0.00 1.68 95 1009.2
20260506021607 8 6 8.0 14.5 0.05 0.00 1.68 95 1009.2
20260506021507 8 46 4.8 12.9 0.05 0.00 1.68 95 1009.2
20260506021407 8 23 6.4 14.5 0.05 0.00 1.68 95 1009.2
20260506021307 8 11 4.8 14.5 0.05 0.00 1.68 95 1009.2
20260506021207 8 11 6.4 14.5 0.05 0.00 1.68 95 1009.2
20260506021107 8 349 8.0 14.5 0.05 0.00 1.68 95 1009.2
20260506021007 8 8 8.0 14.5 0.05 0.00 1.68 95 1009.2
20260506020907 8 354 6.4 14.5 0.05 0.00 1.68 95 1009.2
20260506020807 8 359 4.8 14.5 0.05 0.00 1.68 95 1009.2
20260506020707 8 18 6.4 16.1 0.05 0.00 1.68 95 1009.2
20260506020607 8 10 8.0 16.1 0.05 0.00 1.68 95 1009.2
20260506020507 8 359 9.7 16.1 0.05 0.00 1.68 95 1009.2
20260506020407 8 357 8.0 16.1 0.05 0.00 1.68 95 1009.2
20260506020307 8 15 8.0 16.1 0.05 0.00 1.68 95 1009.2
20260506020207 8 18 6.4 16.1 0.05 0.00 1.68 95 1009.2
20260506020107 8 21 4.8 16.1 0.05 0.00 1.68 95 1009.2
20260506020007 8 352 9.7 16.1 0.05 0.00 1.68 95 1009.2
20260506015907 8 17 8.0 16.1 0.03 0.00 1.65 95 1009.2
20260506015807 8 322 9.7 16.1 0.03 0.00 1.65 95 1009.2
20260506015707 8 335 6.4 16.1 0.03 0.00 1.65 95 1009.2
20260506015607 8 335 8.0 16.1 0.03 0.00 1.65 95 1009.2
20260506015507 8 349 11.3 16.1 0.03 0.00 1.65 95 1009.2
20260506015407 8 13 8.0 16.1 0.03 0.00 1.65 95 1008.8
20260506015307 8 343 9.7 16.1 0.03 0.00 1.65 95 1008.8
20260506015207 8 27 9.7 16.1 0.03 0.00 1.65 95 1008.8
20260506015107 8 330 11.3 16.1 0.03 0.00 1.65 95 1008.8
20260506015007 8 311 6.4 14.5 0.03 0.00 1.65 95 1008.8
20260506014907 8 332 8.0 14.5 0.03 0.00 1.65 95 1008.8
20260506014807 8 343 9.7 17.7 0.03 0.00 1.65 95 1008.8
20260506014707 8 353 9.7 17.7 0.03 0.00 1.65 95 1008.8
20260506014607 8 346 6.4 17.7 0.03 0.00 1.65 95 1008.8
20260506014507 8 350 6.4 17.7 0.03 0.00 1.65 95 1008.8
20260506014407 8 328 4.8 17.7 0.03 0.00 1.65 95 1008.8
20260506014307 8 32 8.0 17.7 0.03 0.00 1.65 95 1008.8
20260506014207 8 359 9.7 17.7 0.03 0.00 1.65 95 1008.8
20260506014107 8 353 11.3 17.7 0.03 0.00 1.65 95 1008.8
20260506014007 8 353 8.0 17.7 0.03 0.00 1.65 95 1008.8
20260506013907 8 339 11.3 17.7 0.03 0.00 1.65 95 1008.8
20260506013807 8 338 9.7 16.1 0.03 0.00 1.65 95 1008.8
20260506013707 8 4 9.7 16.1 0.03 0.00 1.65 95 1008.8
20260506013607 8 31 9.7 16.1 0.03 0.00 1.65 95 1008.8
20260506013507 8 347 9.7 16.1 0.03 0.00 1.65 95 1008.8
20260506013407 8 28 9.7 17.7 0.03 0.00 1.65 95 1008.8
20260506013307 8 359 9.7 17.7 0.03 0.00 1.65 95 1008.8
20260506013207 8 347 11.3 17.7 0.03 0.00 1.65 95 1008.8
20260506013107 8 4 9.7 17.7 0.03 0.00 1.65 95 1008.8
20260506013007 8 359 11.3 17.7 0.03 0.00 1.65 95 1008.8
20260506012907 8 359 8.0 17.7 0.03 0.00 1.65 95 1008.8
20260506012807 8 340 9.7 17.7 0.03 0.00 1.65 95 1008.8
20260506012707 8 342 11.3 17.7 0.03 0.00 1.65 95 1008.8
20260506012607 8 356 12.9 17.7 0.03 0.00 1.65 95 1008.8
20260506012507 8 3 12.9 17.7 0.03 0.00 1.65 95 1008.8
20260506012407 8 342 9.7 16.1 0.05 0.00 1.65 95 1008.8
20260506012308 9 353 6.4 16.1 0.05 0.00 1.65 95 1008.8
20260506012207 8 63 11.3 16.1 0.05 0.00 1.65 95 1008.8
20260506012107 9 10 9.7 16.1 0.03 0.00 1.63 95 1008.8
20260506012007 9 359 6.4 16.1 0.03 0.00 1.63 95 1008.8
20260506011907 9 340 8.0 16.1 0.03 0.00 1.63 95 1008.8
20260506011807 9 7 11.3 16.1 0.03 0.00 1.63 95 1009.2
20260506011707 9 0 4.8 11.3 0.03 0.00 1.63 95 1008.8
20260506011607 9 7 6.4 9.7 0.03 0.00 1.63 95 1009.2
20260506011507 9 336 4.8 8.0 0.03 0.00 1.63 95 1009.2
20260506011407 9 354 4.8 8.0 0.03 0.00 1.63 95 1009.2
20260506011307 9 284 0.0 6.4 0.03 0.00 1.63 95 1009.2
20260506011207 9 284 0.0 8.0 0.03 0.00 1.63 95 1009.2
20260506011107 9 284 0.0 11.3 0.03 0.00 1.63 95 1009.2
20260506011007 9 284 0.0 11.3 0.03 0.00 1.63 95 1009.2
20260506010907 9 284 0.0 12.9 0.03 0.00 1.63 95 1009.2
20260506010807 9 284 0.0 12.9 0.03 0.00 1.63 95 1009.2
20260506010707 9 284 0.0 12.9 0.03 0.00 1.63 95 1009.2
20260506010607 9 284 0.0 12.9 0.03 0.00 1.63 95 1009.2
20260506010507 9 284 1.6 12.9 0.03 0.00 1.63 95 1009.2
20260506010407 9 323 4.8 12.9 0.03 0.00 1.63 95 1008.8
20260506010307 9 4 6.4 12.9 0.03 0.00 1.63 95 1008.8
20260506010207 9 349 9.7 12.9 0.03 0.00 1.63 95 1008.8
20260506010107 9 357 9.7 12.9 0.03 0.00 1.63 95 1008.8
20260506010007 9 328 9.7 12.9 0.03 0.00 1.63 95 1008.8
20260506005907 9 353 4.8 11.3 0.05 0.00 1.63 95 1009.2
20260506005807 9 342 4.8 12.9 0.05 0.00 1.63 95 1008.8
20260506005707 9 304 3.2 12.9 0.05 0.00 1.63 95 1009.2
20260506005607 10 314 3.2 12.9 0.05 0.00 1.63 95 1008.8
20260506005507 10 300 6.4 12.9 0.05 0.00 1.63 95 1008.8
20260506005407 9 285 4.8 12.9 0.05 0.00 1.63 95 1008.8
20260506005307 9 332 4.8 12.9 0.05 0.00 1.63 95 1008.8
20260506005207 9 323 3.2 12.9 0.08 0.00 1.63 95 1008.8
20260506005107 9 352 4.8 12.9 0.08 0.00 1.63 95 1008.8
20260506005007 9 349 6.4 12.9 0.08 0.00 1.63 95 1008.8
20260506004907 9 20 9.7 12.9 0.08 0.00 1.63 95 1008.8
20260506004807 10 335 6.4 12.9 0.08 0.00 1.63 95 1008.8
20260506004707 10 340 3.2 12.9 0.08 0.00 1.63 95 1008.8
20260506004607 10 3 0.0 12.9 0.08 0.00 1.63 95 1008.8
20260506004507 10 3 1.6 14.5 0.08 0.00 1.63 95 1008.8
20260506004407 9 39 6.4 17.7 0.08 0.00 1.63 95 1008.5
20260506004307 9 20 8.0 17.7 0.08 0.00 1.63 95 1008.5
20260506004207 9 291 9.7 20.9 0.10 0.00 1.63 95 1008.5
20260506004107 9 354 8.0 20.9 0.10 0.00 1.63 95 1008.5
20260506004007 9 349 4.8 22.5 0.10 0.00 1.63 95 1008.5
20260506003907 9 359 4.8 24.1 0.10 0.00 1.63 95 1008.5
20260506003807 9 30 6.4 24.1 0.13 0.00 1.63 95 1008.5
20260506003707 9 352 9.7 24.1 0.13 0.00 1.63 95 1008.5
20260506003607 9 349 9.7 24.1 0.13 0.00 1.63 95 1008.5
20260506003507 9 300 12.9 24.1 0.13 0.00 1.63 95 1008.5
20260506003407 9 340 11.3 24.1 0.13 0.00 1.63 95 1008.5
20260506003307 9 359 12.9 24.1 0.15 0.00 1.63 95 1008.2
20260506003207 9 342 16.1 24.1 0.15 0.00 1.63 95 1008.5
20260506003107 9 353 17.7 24.1 0.15 0.00 1.63 95 1008.2
20260506003007 9 356 16.1 24.1 0.15 0.00 1.63 95 1008.2